                ,  0.485,  0.585,  0.685,  0.785,  0.885,  0.985,  1.085,  1.185,  1.285,  1.385,  1.485,  1.585,  1.685,  1.785,  1.885,  1.985,  2.085,  2.185,  2.285,  2.385,  2.485,  2.585,  2.685,  2.785,  2.885,  2.985,  3.085,  3.185,  3.285,  3.385,  3.485,  3.585,  3.685,  3.785,  3.885,  3.985,  4.085,  4.185,  4.285,  4.385,  4.485,  4.585,  4.685,  4.785,  4.885,  4.985,  5.085,  5.185,  5.285,  5.385,  5.485,  5.585,  5.685,  5.785,  5.885,  5.985,  6.085,  6.185,  6.285,  6.385,  6.485,  6.585,  6.685,  6.785,  6.885,  6.985,  7.085,  7.185,  7.285,  7.385,  7.485,  7.585,  7.685,  7.785,  7.885,  7.985,  8.085,  8.185,  8.285,  8.385
2007/08/04 00:00,   -0.0,    0.1,    0.3,    0.4,    0.4,    0.6,    0.3,    0.3,    0.3,    0.3,    0.3,    0.2,    0.2,    0.2,    0.1,    0.0,   -0.0,    0.0,   -0.1,   -0.2,   -0.3,   -0.2,   -0.2,   -0.0,    0.0,    0.1,    0.2,    0.2,   -0.6,   -0.4,   -0.5,   -0.5,   -0.3,  999.0,  999.0,  999.0,  999.0,   -2.5,  999.0,   -1.3,   -1.3,   -1.3,   -1.3,   -1.3,   -1.2,   -1.1,   -0.9,   -0.8,   -0.7,   -0.6,   -0.6,   -0.7,   -0.6,   -0.7,   -0.9,   -0.8,   -0.8,   -0.7,   -0.7,   -0.7,   -0.5,   -0.5,   -0.6,   -0.5,   -0.5,   -0.5,   -0.4,   -0.4,   -0.5,   -0.4,   -0.5,   -0.4,  999.0,  999.0,  999.0,    0.1,  999.0,   -0.3,  999.0,   -0.1
2007/08/04 00:10,  999.0,    0.1,    0.1,    0.4,  999.0,  999.0,    0.3,    0.3,    0.2,    0.3,   -1.5,   -1.5,   -1.4,   -1.4,   -1.3,   -1.4,   -1.6,   -1.3,   -1.3,   -1.3,   -1.3,   -1.2,   -1.0,   -1.4,   -0.9,   -1.5,   -2.4,   -2.0,   -1.6,   -2.0,   -2.6,   -2.7,   -2.5,   -2.6,   -2.6,   -2.7,   -2.6,   -2.0,   -1.5,   -1.3,   -1.4,   -1.5,   -1.5,   -1.4,   -1.3,   -1.2,   -1.3,   -1.3,   -1.2,   -1.2,   -1.1,   -1.1,   -1.1,   -1.1,   -1.1,   -1.2,   -1.2,   -1.2,   -1.0,   -0.9,   -0.9,   -0.9,   -1.0,   -1.0,   -1.0,   -0.9,   -0.8,   -0.7,   -0.7,   -0.3,   -0.5,  999.0,  999.0,  999.0,  999.0,    0.2,  999.0,  999.0,  999.0,    0.4
2007/08/04 00:20,    0.0,    0.1,    0.2,    0.2,    0.3,    0.3,    0.4,    0.5,    0.4,    0.4,    0.4,    0.5,    0.4,    0.3,    0.4,    0.4,    0.4,    0.2,    0.2,    0.1,    0.1,    0.1,    0.1,    0.0,    0.1,    0.1,    0.1,    0.0,   -0.1,    0.0,  999.0,  999.0,  999.0,   -1.1,   -1.7,   -1.7,  999.0,   -1.2,   -1.2,   -1.3,   -1.4,   -1.4,   -1.4,   -1.5,   -1.4,   -1.4,   -1.3,   -1.3,   -1.2,   -1.1,   -1.0,   -1.0,   -0.9,   -0.9,   -0.9,   -0.9,   -0.8,   -0.7,   -0.7,   -0.6,   -0.7,   -0.8,   -0.7,   -0.8,   -0.8,   -0.9,   -0.8,   -0.8,   -0.7,   -0.6,   -0.4,  999.0,  999.0,  999.0,  999.0,  999.0,    0.1,    0.1,  999.0,   -0.3
2007/08/04 00:30,    0.0,   -0.0,    0.0,    0.1,    0.2,    0.2,    0.4,    0.3,    0.3,    0.3,    0.4,    0.3,    0.3,    0.3,    0.3,    0.3,    0.3,    0.3,    0.4,    0.3,    0.4,    0.3,    0.3,    0.2,    0.1,    0.1,    0.1,    0.1,    0.0,    0.0,    0.0,   -0.0,    0.0,   -0.0,   -0.0,   -0.0,   -1.5,   -1.3,   -1.2,   -1.3,   -1.4,   -1.5,   -1.6,   -1.6,   -1.6,   -1.5,   -1.5,   -1.5,   -1.4,   -1.2,   -1.1,   -1.0,   -0.9,   -1.0,   -1.0,   -1.0,   -0.9,   -0.9,   -0.9,   -0.8,   -0.8,   -1.0,   -0.9,   -0.9,   -0.8,   -0.7,   -0.6,   -0.6,   -0.6,  999.0,  999.0,  999.0,  999.0,  999.0,  999.0,  999.0,  999.0,  999.0,  999.0,  999.0
2007/08/04 00:40,    0.1,    0.1,    0.3,    0.7,   -1.1,   -1.5,   -2.2,   -2.3,   -2.1,   -2.2,   -2.4,   -2.3,   -2.2,   -2.3,   -2.2,   -2.8,   -2.8,   -2.9,   -2.9,   -2.9,   -3.0,   -2.9,   -2.9,   -2.9,   -2.9,   -2.9,   -2.9,   -2.8,   -2.8,   -2.7,   -2.8,   -2.8,   -3.0,   -2.9,   -3.0,   -3.1,   -3.1,   -2.6,   -1.8,   -1.5,   -1.5,   -1.6,   -1.6,   -1.6,   -1.5,   -1.5,   -1.4,   -1.2,   -1.0,   -0.9,   -0.8,   -0.8,   -0.8,   -0.7,   -0.9,   -0.9,   -0.9,   -0.7,   -0.6,   -0.8,   -1.0,   -0.8,   -0.8,   -0.9,   -0.4,  999.0,  999.0,  999.0,  999.0,  999.0,  999.0,  999.0,  999.0,  999.0,  999.0,  999.0,  999.0,   -0.1,  999.0,  999.0
2007/08/04 00:50,   -1.4,   -1.8,   -1.7,   -1.3,   -2.9,   -2.9,   -2.3,   -2.5,   -3.4,   -3.3,   -2.3,   -3.5,   -2.6,   -2.5,   -3.0,   -2.9,   -2.9,   -2.8,   -2.7,   -2.7,   -3.0,   -2.9,   -2.9,   -2.8,   -2.5,   -2.5,   -2.5,   -2.6,   -2.8,   -2.7,   -2.6,   -2.4,   -2.6,   -2.6,   -2.5,   -2.6,   -2.7,   -2.5,   -1.8,   -1.2,   -1.2,   -1.2,   -1.2,   -1.1,   -1.0,   -0.9,   -0.8,   -0.8,   -0.6,   -0.6,   -0.6,   -0.6,   -0.6,   -0.5,   -0.4,   -0.3,   -0.2,   -0.0,  999.0,  999.0,  999.0,  999.0,  999.0,  999.0,  999.0,  999.0,  999.0,  999.0,  999.0,  999.0,  999.0,  999.0,  999.0,  999.0,  999.0,  999.0,  999.0,  999.0,  999.0,  999.0
2007/08/04 01:00,    0.0,   -0.0,    0.1,   -0.2,   -0.3,   -0.1,    0.2,    0.2,    0.3,    0.1,    0.2,    0.2,    0.7,    0.4,    0.4,    0.3,    0.3,    0.3,    0.0,    0.2,    0.2,    0.3,    0.1,    0.0,   -0.0,   -0.1,   -0.1,   -0.0,   -0.2,   -0.8,   -0.2,  999.0,    0.0,   -0.1,   -0.0,  999.0,    0.4,    0.3,    0.3,    0.1,   -0.0,   -0.6,   -0.6,   -0.9,   -1.0,   -0.9,   -0.8,   -0.6,   -0.6,   -0.5,   -0.5,   -0.4,   -0.4,   -0.5,   -0.2,   -0.2,   -0.1,   -0.0,    0.0,  999.0,  999.0,  999.0,  999.0,  999.0,   -0.7,  999.0,  999.0,  999.0,  999.0,  999.0,  999.0,  999.0,  999.0,    0.2,  999.0,  999.0,  999.0,  999.0,  999.0,  999.0
2007/08/04 01:10,    0.0,    0.1,    0.0,   -0.2,   -0.1,    0.2,    0.2,    0.2,    0.2,    0.4,    0.4,    0.3,    0.3,    0.3,    0.3,    0.3,    0.3,    0.3,    0.3,    0.2,    0.2,    0.2,    0.1,    0.1,    0.1,    0.2,    0.2,    0.2,    0.2,    0.1,  999.0,    0.0,   -0.0,    0.1,    0.2,    0.2,    0.2,    0.2,    0.3,    0.3,    0.2,   -0.1,   -0.2,    0.3,   -0.2,   -0.3,   -0.5,   -0.8,   -0.8,   -0.7,   -0.8,   -0.7,   -0.8,   -0.8,   -0.8,   -0.8,   -0.8,   -0.7,   -0.8,   -0.8,   -0.8,   -0.8,   -0.8,   -0.8,   -0.8,   -0.9,   -0.9,   -0.9,   -0.7,   -0.7,   -0.7,   -0.4,  999.0,   -0.1,  999.0,  999.0,  999.0,    0.1,  999.0,    0.4
2007/08/04 01:20,    0.0,   -0.0,    0.1,    0.0,  999.0,    0.2,    0.3,    0.3,    0.2,    0.3,    0.4,    0.4,    0.3,    0.3,    0.4,    0.4,    0.6,    0.4,    0.4,    0.3,    0.3,    0.3,    0.3,    0.2,    0.1,    0.3,    0.3,    0.3,    0.3,    0.2,   -0.0,    0.1,   -0.0,    0.2,    0.3,    0.3,    0.3,    0.4,    0.4,    0.3,    0.3,    0.4,    0.5,    0.3,    0.2,    0.2,    0.2,    0.0,   -0.6,   -0.9,   -1.1,   -1.1,   -1.2,   -1.2,   -1.1,   -1.0,   -0.9,   -0.9,   -1.0,   -1.0,   -1.0,   -1.0,   -0.9,   -1.0,   -0.9,   -0.9,   -0.8,   -0.7,   -0.6,   -0.5,  999.0,  999.0,  999.0,    0.3,    0.2,  999.0,  999.0,  999.0,  999.0,  999.0
2007/08/04 01:30,   -0.0,    0.0,    0.0,    0.1,    0.1,    0.4,    0.4,    0.4,    0.4,    0.4,    0.4,    0.5,    0.4,    0.4,    0.3,    0.3,    0.3,    0.2,    0.3,    0.3,    0.4,    0.4,    0.3,    0.2,    0.2,    0.5,    0.5,    0.5,    0.4,    0.3,    0.3,    0.1,    0.2,    0.1,    0.3,    0.3,    0.2,    0.3,    0.2,    0.1,    0.3,    0.2,    0.2,    0.2,    0.1,    0.1,    0.1,    0.1,   -0.0,   -0.2,   -0.6,   -0.8,   -0.7,   -0.7,   -0.7,   -0.7,   -0.7,  999.0,   -0.8,   -0.6,   -0.5,   -0.6,   -0.6,   -0.7,   -0.6,   -0.7,   -0.6,   -0.7,   -0.7,   -0.6,   -0.3,   -0.1,    0.0,   -0.0,   -0.0,  999.0,  999.0,  999.0,  999.0,    0.1
2007/08/04 01:40,    0.0,    0.0,    0.0,    0.1,    0.2,    0.4,    0.4,    0.4,    0.4,    0.5,    0.5,    0.4,    0.5,    0.5,    0.3,    0.4,    0.3,    0.3,    0.3,    0.2,    0.3,    0.4,    0.4,    0.4,    0.3,    0.5,    0.6,    0.5,    0.5,    0.4,    0.5,    0.1,    0.2,    0.2,    0.2,    0.2,    0.1,    0.0,    0.3,  999.0,  999.0,    0.0,   -0.0,  999.0,   -0.1,   -0.0,   -0.0,   -0.1,   -0.2,   -0.3,   -0.3,   -0.5,   -0.7,   -0.8,  999.0,  999.0,   -0.8,   -0.7,   -0.6,   -0.6,   -0.5,   -0.4,   -0.5,   -0.5,   -0.5,   -0.4,   -0.4,   -0.4,   -0.5,   -0.5,   -0.4,   -0.2,   -0.3,  999.0,    0.2,    0.3,  999.0,  999.0,  999.0,  999.0
2007/08/04 01:50,   -0.0,    0.0,    0.0,    0.1,    0.2,    0.4,    0.4,    0.4,    0.4,    0.3,    0.4,    0.4,    0.3,    0.4,    0.3,    0.3,    0.3,    0.3,    0.3,    0.3,    0.3,    0.3,    0.2,    0.3,    0.1,    0.1,    0.3,    0.3,    0.3,    0.2,    0.2,    0.1,    0.2,    0.3,    0.3,    0.3,    0.1,    0.2,    0.2,    0.2,    0.1,    0.1,    0.1,    0.0,    0.0,    0.0,    0.0,   -0.0,   -0.1,   -0.1,   -0.2,   -0.4,   -0.8,   -0.9,   -0.8,   -0.9,   -0.8,   -0.8,   -0.6,   -0.6,   -0.5,   -0.5,   -0.5,   -0.6,   -0.6,   -0.6,   -0.6,   -0.6,   -0.7,   -0.7,   -0.8,   -0.9,  999.0,   -0.4,   -0.2,   -0.3,  999.0,  999.0,  999.0,  999.0
2007/08/04 02:00,    0.0,    0.0,    0.1,    0.1,    0.2,    0.2,    0.3,    0.3,    0.2,    0.2,    0.3,    0.2,    0.2,    0.1,    0.2,    0.1,    0.1,    0.1,    0.2,    0.1,    0.1,    0.2,    0.1,    0.1,    0.0,    0.1,    0.2,    0.2,    0.3,    0.3,    0.4,    0.3,    0.3,    0.3,    0.3,    0.1,    0.3,    0.1,  999.0,  999.0,    0.1,    0.1,    0.0,    0.0,    0.1,    0.1,    0.0,    0.1,    0.0,    0.0,   -0.6,   -0.5,   -0.6,   -0.9,   -0.9,   -0.9,   -0.7,   -0.7,   -0.6,   -0.4,   -0.3,   -0.2,   -0.2,   -0.4,   -0.5,   -0.5,   -0.7,   -0.8,   -0.9,   -0.8,   -0.8,   -0.7,   -0.5,   -0.5,   -0.3,  999.0,  999.0,  999.0,  999.0,  999.0
2007/08/04 02:10,    0.0,    0.0,    0.1,    0.1,    0.2,    0.3,    0.3,    0.2,    0.1,    0.1,    0.1,   -0.0,    0.0,    0.1,    0.2,    0.2,    0.1,    0.1,    0.1,    0.1,    0.1,    0.1,    0.2,    0.2,    0.1,    0.3,    0.4,    0.4,    0.3,    0.3,    0.3,    0.3,    0.2,    0.1,    0.0,    0.2,    0.2,    0.2,    0.3,    0.2,    0.2,  999.0,    0.3,    0.3,    0.2,    0.1,    0.2,    0.1,    0.1,    0.1,   -0.1,   -0.0,    0.0,   -0.4,   -0.9,   -1.0,   -1.0,   -0.8,   -0.7,   -0.7,   -0.6,   -0.6,   -0.3,   -0.4,   -0.6,   -0.7,   -0.7,   -0.8,   -0.7,   -0.8,   -0.7,   -0.7,   -0.5,   -0.3,   -0.2,  999.0,  999.0,   -0.1,  999.0,  999.0
2007/08/04 02:20,   -0.0,    0.2,    0.2,    0.7,    0.7,    0.8,    0.7,    0.6,    0.7,    0.6,    0.6,    0.5,    0.4,    0.4,    0.5,    0.4,    0.4,    0.4,    0.3,    0.4,    0.3,    0.3,    0.2,    0.2,    0.0,    0.2,    0.2,    0.3,    0.2,    0.2,    0.3,    0.2,    0.2,    0.2,    0.2,    0.3,    0.2,    0.3,    0.1,  999.0,    0.2,    0.3,    0.3,    0.2,    0.2,    0.2,    0.3,    0.1,    0.1,   -0.2,   -0.4,   -0.4,   -0.3,   -0.9,   -0.9,   -0.9,   -0.8,   -0.6,   -0.5,   -0.8,   -0.4,   -0.7,   -0.6,   -0.6,   -0.6,   -0.6,   -0.6,   -0.5,   -0.5,   -0.4,   -0.4,   -0.4,  999.0,  999.0,    0.0,    0.1,    0.1,    0.1,  999.0,  999.0
2007/08/04 02:30,   -0.0,    0.2,    0.4,    1.3,    1.1,    1.0,    1.0,    0.7,    0.8,    0.7,    0.7,    0.6,    0.5,    0.5,    0.5,    0.6,    0.5,    0.5,    0.5,    0.5,    0.5,    0.5,    0.3,    0.2,    0.1,    0.2,    0.3,    0.3,    0.3,    0.3,    0.3,    0.2,    0.2,    0.2,    0.2,    0.0,   -0.0,   -0.1,    0.1,    0.1,    0.1,    0.0,    0.1,    0.0,    0.0,    0.0,   -0.0,   -0.1,   -0.3,   -0.4,   -0.8,   -0.6,   -0.6,   -0.9,   -1.0,   -0.8,   -0.8,   -0.2,   -0.6,   -0.6,   -0.2,   -0.0,   -0.1,    0.2,   -0.2,  999.0,  999.0,  999.0,   -0.1,   -0.5,   -0.5,   -0.4,   -0.4,   -0.3,  999.0,   -0.0,    0.1,  999.0,  999.0,  999.0
2007/08/04 02:40,   -0.0,    0.0,    0.3,    0.6,    0.7,    0.7,    0.6,    0.4,    0.5,    0.4,    0.4,    0.4,    0.3,    0.4,    0.4,    0.4,    0.5,    0.5,    0.5,    0.5,    0.5,    0.5,    0.4,    0.2,    0.1,    0.2,    0.4,    0.5,    0.4,    0.2,    0.2,    0.2,    0.2,    0.3,    0.2,    0.2,    0.1,    0.1,   -0.0,  999.0,    0.1,    0.1,    0.1,    0.1,    0.1,    0.0,    0.1,    0.0,    0.0,   -0.0,   -0.1,   -0.0,    0.0,   -0.2,   -0.3,   -0.3,   -0.2,    0.0,  999.0,   -0.4,   -0.3,  999.0,  999.0,    0.0,   -0.2,  999.0,  999.0,  999.0,  999.0,   -0.4,  999.0,  999.0,  999.0,  999.0,  999.0,   -0.4,  999.0,  999.0,  999.0,  999.0
2007/08/04 02:50,   -0.0,    0.1,    0.6,    1.0,    0.8,    0.8,    0.6,    0.7,    0.5,    0.5,    0.5,    0.4,    0.3,    0.3,    0.3,    0.3,    0.4,    0.5,    0.4,    0.4,    0.5,    0.4,    0.2,    0.1,  999.0,    0.1,    0.3,    0.4,    0.5,    0.4,    0.3,    0.3,    0.3,    0.2,    0.2,    0.2,    0.1,    0.1,    0.1,   -0.0,    0.1,    0.1,    0.1,    0.0,   -0.0,    0.0,    0.1,    0.1,    0.0,    0.1,    0.1,    0.1,   -0.0,   -0.0,    0.1,    0.0,   -0.0,   -0.2,  999.0,    0.1,   -0.3,  999.0,  999.0,    0.2,  999.0,    0.0,  999.0,  999.0,  999.0,  999.0,  999.0,  999.0,  999.0,  999.0,  999.0,   -0.2,   -0.2,    0.1,  999.0,  999.0
2007/08/04 03:00,   -0.0,    0.0,    0.4,    0.6,    0.6,    0.5,    0.6,    0.3,    0.4,    0.3,    0.3,    0.3,    0.1,    0.2,    0.2,    0.2,    0.2,    0.2,    0.3,    0.3,    0.3,    0.3,    0.2,    0.0,   -0.0,    0.0,    0.2,    0.2,    0.2,    0.2,    0.2,    0.3,    0.3,    0.2,    0.1,    0.3,    0.4,    0.2,  999.0,  999.0,    0.0,    0.2,    0.2,    0.2,    0.1,    0.0,    0.1,   -0.1,   -0.1,    0.0,    0.1,    0.1,    0.2,    0.2,    0.3,    0.4,    0.4,  999.0,  999.0,    0.3,    0.3,  999.0,  999.0,    0.1,  999.0,    0.1,    0.2,   -0.1,  999.0,  999.0,  999.0,  999.0,  999.0,  999.0,  999.0,  999.0,   -0.2,    0.1,  999.0,   -0.0
2007/08/04 03:10,   -0.0,    0.0,    0.1,    0.5,    0.5,    0.4,    0.3,    0.2,    0.2,    0.2,    0.1,    0.0,    0.0,    0.1,    0.0,    0.1,    0.2,    0.2,    0.2,    0.2,    0.1,    0.1,    0.1,    0.1,    0.0,    0.0,    0.2,    0.1,    0.1,    0.0,    0.0,    0.2,    0.1,    0.0,    0.0,   -0.1,   -0.1,   -0.1,  999.0,   -0.1,   -0.0,   -0.2,   -0.2,   -0.3,   -0.3,   -0.3,   -0.3,   -0.3,   -0.3,   -0.3,   -0.2,   -0.2,   -0.0,  999.0,   -0.1,   -0.0,    0.2,  999.0,  999.0,  999.0,    0.2,   -0.1,  999.0,  999.0,  999.0,    0.1,    0.1,  999.0,  999.0,   -0.1,    0.0,  999.0,  999.0,    0.1,  999.0,    0.1,   -0.0,  999.0,  999.0,  999.0
2007/08/04 03:20,   -0.0,    0.0,    0.1,    0.3,    0.4,    0.5,    0.3,    0.4,    0.3,    0.3,    0.2,    0.1,    0.1,    0.1,    0.2,    0.2,    0.3,    0.2,    0.1,    0.3,    0.2,    0.3,    0.2,    0.2,    0.1,    0.2,    0.3,    0.3,    0.3,    0.2,    0.3,    0.5,    0.5,    0.4,    0.4,    0.4,    0.3,  999.0,  999.0,    0.0,   -0.0,  999.0,  999.0,   -0.3,   -0.3,   -0.3,   -0.3,   -0.3,   -0.3,   -0.3,   -0.2,   -0.2,   -0.1,   -0.3,   -0.2,   -0.1,    0.1,   -0.0,   -0.1,   -0.2,   -0.3,   -0.1,    0.1,  999.0,  999.0,    0.1,    0.2,  999.0,  999.0,   -0.0,   -0.0,  999.0,  999.0,  999.0,  999.0,  999.0,  999.0,    0.0,  999.0,  999.0
2007/08/04 03:30,    0.0,    0.1,    0.2,    0.5,    0.5,    0.9,    0.8,    0.6,    0.7,    0.6,    0.5,    0.4,    0.4,    0.4,    0.3,    0.3,    0.2,    0.3,    0.2,    0.3,    0.4,    0.3,    0.3,    0.1,    0.1,    0.1,    0.1,    0.0,    0.0,    0.1,    0.2,    0.4,    0.6,    0.6,    0.4,    0.5,    0.5,  999.0,  999.0,    0.3,    0.3,    0.3,    0.3,    0.2,    0.1,    0.1,    0.1,    0.0,    0.0,    0.0,    0.0,    0.0,   -0.1,    0.2,    0.0,    0.0,  999.0,  999.0,  999.0,   -0.0,  999.0,  999.0,  999.0,  999.0,  999.0,   -0.1,   -0.1,  999.0,  999.0,  999.0,  999.0,  999.0,  999.0,  999.0,  999.0,  999.0,  999.0,   -0.0,    0.2,  999.0
2007/08/04 03:40,   -0.0,    0.2,    0.3,    0.4,    0.6,    0.8,    0.7,    0.5,    0.5,    0.4,    0.4,    0.4,    0.2,    0.2,    0.2,    0.2,    0.3,    0.1,    0.2,    0.2,    0.4,    0.4,    0.2,    0.1,    0.1,    0.5,    0.4,    0.2,    0.2,    0.2,    0.6,    0.6,    0.8,    0.5,    0.4,    0.3,  999.0,  999.0,  999.0,    0.3,    0.1,    0.3,    0.4,    0.2,    0.2,    0.2,    0.2,   -0.0,   -0.0,   -0.0,   -0.1,   -0.0,   -0.0,   -0.0,   -0.1,  999.0,  999.0,    0.0,   -0.1,   -0.3,   -0.3,   -0.3,   -0.3,  999.0,  999.0,  999.0,  999.0,  999.0,  999.0,  999.0,  999.0,  999.0,  999.0,  999.0,  999.0,  999.0,  999.0,  999.0,  999.0,  999.0
2007/08/04 03:50,   -0.0,    0.2,    0.2,    0.4,    0.8,    0.9,    0.9,    0.7,    0.6,    0.5,    0.5,    0.4,    0.4,    0.5,    0.4,    0.4,    0.4,    0.2,    0.4,    0.4,    0.4,    0.3,    0.1,    0.1,  999.0,    0.2,    0.4,    0.5,    0.2,    0.1,    0.3,    0.4,    0.4,    0.1,    0.2,    0.4,    0.2,  999.0,    0.2,    0.3,    0.3,    0.2,    0.0,    0.1,    0.1,    0.1,    0.0,   -0.1,   -0.1,   -0.2,  999.0,  999.0,   -0.3,   -0.2,   -0.3,  999.0,  999.0,   -0.5,   -0.5,  999.0,  999.0,  999.0,  999.0,  999.0,  999.0,  999.0,   -0.3,  999.0,  999.0,  999.0,  999.0,  999.0,  999.0,  999.0,  999.0,  999.0,  999.0,  999.0,  999.0,    0.1
2007/08/04 04:00,   -0.0,    0.1,    0.1,    0.4,    0.6,    0.7,    0.6,    0.4,    0.4,    0.3,    0.2,    0.1,    0.2,    0.2,    0.1,    0.2,    0.2,    0.1,    0.2,    0.2,    0.1,    0.2,    0.1,    0.1,  999.0,    0.0,    0.1,    0.2,    0.2,    0.1,    0.3,    0.2,    0.1,    0.1,    0.1,    0.1,   -0.1,  999.0,    0.4,    0.3,    0.3,    0.2,  999.0,    0.3,    0.2,    0.2,    0.2,    0.2,    0.1,    0.2,    0.1,    0.1,    0.2,    0.0,   -0.1,  999.0,  999.0,   -0.2,   -0.3,   -0.3,  999.0,  999.0,  999.0,  999.0,  999.0,  999.0,  999.0,   -0.6,   -0.4,   -0.5,  999.0,  999.0,  999.0,  999.0,  999.0,  999.0,  999.0,  999.0,  999.0,  999.0
2007/08/04 04:10,   -0.0,    0.0,    0.0,    0.2,    0.4,    0.7,    0.4,    0.2,    0.5,    0.3,    0.3,    0.3,    0.2,    0.2,    0.2,    0.2,    0.3,    0.2,    0.2,    0.1,    0.1,    0.1,    0.0,    0.0,  999.0,    0.0,    0.0,    0.0,    0.1,    0.2,    0.1,    0.1,    0.0,    0.1,    0.1,    0.1,    0.1,  999.0,  999.0,  999.0,   -0.1,    0.0,   -0.1,   -0.1,   -0.1,   -0.0,   -0.1,   -0.2,   -0.1,   -0.1,   -0.2,    0.0,   -0.0,   -0.1,   -0.1,  999.0,   -0.2,   -0.1,   -0.3,  999.0,  999.0,  999.0,  999.0,  999.0,  999.0,  999.0,  999.0,  999.0,  999.0,  999.0,  999.0,   -0.1,  999.0,  999.0,   -0.5,  999.0,  999.0,  999.0,  999.0,  999.0
2007/08/04 04:20,    0.0,    0.0,    0.2,    0.6,    0.8,    1.1,    1.1,  999.0,    0.8,    0.7,    0.7,    0.6,    0.5,    0.5,    0.5,    0.5,    0.5,    0.6,    0.5,    0.6,    0.5,    0.5,    0.3,    0.1,  999.0,    0.1,    0.2,    0.6,    0.4,    0.4,    0.5,    0.4,    0.4,    0.1,  999.0,    0.2,  999.0,  999.0,    0.0,    0.1,    0.0,    0.0,   -0.0,   -0.0,   -0.0,    0.0,   -0.0,    0.0,    0.1,    0.3,  999.0,    0.2,    0.1,    0.1,    0.2,    0.3,    0.1,    0.2,   -0.0,  999.0,  999.0,  999.0,  999.0,  999.0,   -0.0,   -0.1,   -0.4,   -0.3,   -0.2,  999.0,   -0.0,  999.0,  999.0,   -0.5,  999.0,  999.0,  999.0,  999.0,  999.0,  999.0
2007/08/04 04:30,   -0.0,    0.0,    0.0,    0.2,    0.2,    0.5,    0.5,    0.5,    0.4,    0.4,    0.2,    0.3,    0.3,    0.2,    0.3,    0.3,    0.4,    0.3,    0.4,    0.3,    0.4,    0.4,    0.3,    0.1,  999.0,    0.1,    0.3,    0.4,    0.5,    0.6,    0.7,    0.7,    0.7,    0.8,    0.0,    0.1,  999.0,  999.0,    0.4,    0.5,    0.5,    0.5,    0.5,    0.5,    0.6,    0.5,    0.6,    0.7,    0.7,    0.8,  999.0,    0.5,    0.5,    0.5,    0.6,    0.6,    0.3,    0.5,    0.5,    0.4,    0.5,    0.1,    0.3,    0.1,    0.1,    0.1,    0.1,  999.0,  999.0,  999.0,    0.1,  999.0,  999.0,  999.0,  999.0,  999.0,  999.0,  999.0,  999.0,  999.0
2007/08/04 04:40,    0.0,    0.0,   -0.0,    0.1,    0.3,    0.4,    0.3,    0.2,    0.2,    0.2,    0.1,    0.2,    0.2,    0.3,    0.3,    0.3,    0.3,    0.3,    0.3,    0.3,    0.2,    0.3,    0.2,    0.1,  999.0,    0.1,    0.2,    0.3,    0.4,    0.3,    0.3,    0.4,    0.4,    0.2,    0.1,    0.3,    0.1,  999.0,  999.0,    0.5,  999.0,  999.0,    0.1,    0.5,    0.3,    0.3,    0.3,    0.3,    0.3,    0.3,    0.2,    0.1,    0.1,    0.1,    0.2,    0.1,    0.4,  999.0,    0.3,    0.3,    0.1,    0.1,   -0.0,   -0.3,    0.0,   -0.1,   -0.5,   -0.6,   -0.8,   -1.1,   -0.7,   -0.7,   -0.5,   -0.5,   -0.7,  999.0,  999.0,  999.0,  999.0,  999.0
2007/08/04 04:50,    0.0,    0.0,    0.2,    0.1,    0.3,    0.4,    0.3,    0.3,    0.3,    0.4,    0.3,    0.4,    0.3,    0.3,    0.3,    0.3,    0.2,    0.1,    0.1,    0.1,    0.2,    0.1,    0.1,    0.0,   -0.0,    0.0,    0.1,    0.2,    0.1,    0.1,    0.1,    0.0,    0.1,    0.1,    0.0,    0.1,    0.1,  999.0,  999.0,   -0.0,  999.0,   -0.0,   -0.0,    0.0,   -0.0,   -0.1,   -0.1,   -0.1,   -0.2,   -0.2,   -0.2,   -0.2,   -0.3,   -0.2,   -0.1,   -0.2,  999.0,   -0.2,   -0.3,   -0.7,   -0.8,   -0.8,   -0.7,   -0.7,   -0.7,   -0.6,   -0.7,   -0.8,   -0.9,   -0.9,   -0.8,   -0.7,   -0.8,   -0.8,   -0.7,  999.0,   -0.2,   -0.0,  999.0,  999.0
2007/08/04 05:00,    0.0,    0.0,    0.1,    0.2,    0.4,    0.5,    0.5,    0.5,    0.5,    0.5,    0.5,    0.5,    0.5,    0.5,    0.4,    0.4,    0.4,    0.4,    0.4,    0.4,    0.5,    0.6,    0.2,    0.0,  999.0,    0.2,    0.5,    0.5,    0.4,    0.3,    0.2,    0.2,    0.3,    0.2,    0.0,    0.1,    0.1,  999.0,  999.0,   -0.1,  999.0,   -0.0,   -0.1,   -0.1,    0.0,   -0.0,   -0.0,    0.1,   -0.0,   -0.1,   -0.0,   -0.2,   -0.2,   -0.1,   -0.1,   -0.1,    0.1,  999.0,   -0.9,   -0.8,   -0.7,   -0.8,   -0.8,   -0.7,   -0.6,   -0.5,   -0.4,   -0.5,   -0.5,   -0.4,   -0.4,   -0.4,   -0.6,   -0.5,   -0.4,  999.0,    0.1,    0.2,    0.3,  999.0
2007/08/04 05:10,    0.0,    0.1,    0.1,    0.1,    0.2,    0.3,    0.4,    0.4,    0.4,    0.4,    0.5,    0.4,    0.4,    0.3,    0.3,    0.3,    0.3,    0.4,    0.4,    0.4,    0.5,    0.5,   -0.0,    0.1,  999.0,    0.3,    0.5,    0.5,    0.4,    0.4,    0.3,    0.2,    0.2,    0.2,    0.1,    0.0,   -0.0,    0.3,    0.3,    0.3,  999.0,    0.3,    0.2,    0.2,    0.1,    0.2,    0.2,    0.0,    0.0,   -0.1,  999.0,  999.0,   -0.1,   -0.4,   -0.9,   -0.9,   -1.2,   -1.1,   -1.1,   -1.0,   -0.9,   -0.8,   -0.8,   -0.9,   -0.9,   -0.8,   -0.8,   -0.7,   -0.6,   -0.5,   -0.4,   -0.3,   -0.3,   -0.7,  999.0,  999.0,  999.0,   -0.0,  999.0,  999.0
2007/08/04 05:20,    0.0,    0.0,   -0.0,    0.1,    0.2,    0.3,    0.3,    0.3,    0.3,    0.3,    0.3,    0.3,    0.3,    0.2,    0.1,    0.2,    0.3,    0.2,    0.3,    0.3,    0.4,    0.1,    0.1,    0.1,    0.0,    0.2,    0.3,    0.2,    0.2,    0.3,    0.4,    0.4,    0.3,    0.3,   -0.1,    0.3,    0.5,    0.5,    0.5,    0.7,    0.4,    0.4,    0.3,    0.4,    0.4,    0.4,    0.3,    0.2,    0.1,    0.0,  999.0,  999.0,  999.0,   -0.1,   -0.0,   -0.5,   -0.9,   -1.0,   -0.9,   -0.9,   -1.0,   -1.0,   -1.0,   -1.0,   -1.0,   -1.0,   -1.1,   -1.0,   -0.9,   -0.8,   -0.7,   -0.4,  999.0,  999.0,  999.0,  999.0,  999.0,  999.0,  999.0,  999.0
2007/08/04 05:30,    0.0,   -0.0,    0.0,    0.0,    0.1,    0.0,    0.1,    0.2,    0.2,    0.1,    0.1,    0.1,    0.0,    0.0,    0.1,    0.1,    0.0,   -0.1,   -0.1,   -0.1,  999.0,    0.3,    0.0,    0.1,    0.0,    0.1,    0.2,    0.1,    0.2,    0.2,    0.2,    0.2,    0.3,    0.2,    0.2,   -0.1,    0.1,    0.3,    0.4,    0.4,  999.0,    0.3,    0.3,    0.3,    0.2,    0.2,    0.2,  999.0,   -0.0,   -0.1,  999.0,  999.0,  999.0,   -0.1,  999.0,  999.0,   -0.6,  999.0,   -0.4,   -0.7,   -0.8,   -0.8,   -0.8,   -0.8,   -0.9,   -0.9,   -0.9,   -0.9,   -0.9,   -0.8,   -0.8,   -0.7,  999.0,   -1.2,   -1.3,   -1.2,  999.0,  999.0,   -0.3,  999.0
2007/08/04 05:40,  999.0,   -0.0,    0.0,    0.0,    0.1,    0.2,    0.3,    0.4,    0.3,    0.4,    0.4,    0.3,    0.2,    0.2,    0.3,    0.2,    0.2,    0.2,    0.3,    0.3,    0.3,    0.1,    0.0,    0.0,    0.0,    0.1,    0.2,    0.1,    0.3,    0.2,    0.2,    0.3,    0.2,    0.1,   -0.0,    0.1,    0.0,    0.2,    0.2,    0.2,    0.3,    0.2,    0.2,    0.2,    0.1,    0.2,    0.1,    0.0,   -0.2,   -0.2,  999.0,   -0.1,  999.0,  999.0,   -0.0,  999.0,  999.0,  999.0,   -0.1,  999.0,   -0.8,   -0.8,   -0.8,   -0.8,   -0.8,   -0.8,   -0.8,   -0.8,   -0.7,   -0.5,   -0.3,  999.0,   -1.0,   -1.0,   -1.0,   -0.9,   -0.8,  999.0,  999.0,    0.1
2007/08/04 05:50,    0.0,    0.0,    0.0,    0.1,    0.4,    0.6,    0.7,    0.7,    0.6,    0.7,    0.6,    0.5,    0.4,    0.3,    0.2,    0.1,    0.2,    0.4,    0.4,    0.3,    0.4,    0.2,    0.0,    0.0,    0.0,    0.2,    0.5,    0.2,    0.2,    0.1,    0.3,    0.3,    0.4,    0.2,    0.1,    0.2,    0.1,    0.3,    0.3,    0.3,    0.2,    0.4,    0.3,    0.2,    0.2,    0.2,    0.1,    0.1,   -0.0,   -0.1,  999.0,  999.0,   -0.2,   -0.3,   -0.1,  999.0,   -0.1,   -0.3,   -0.2,  999.0,   -0.3,   -0.7,   -0.7,   -0.7,   -0.7,   -0.6,   -0.6,   -0.6,   -0.7,   -0.2,   -0.4,  999.0,  999.0,   -1.0,   -1.0,   -0.8,   -1.0,   -1.2,   -1.3,   -1.3
2007/08/04 06:00,    0.0,    0.1,    0.1,    0.2,    0.4,    0.5,    0.5,    0.5,    0.4,    0.3,    0.3,    0.2,    0.2,    0.1,   -0.0,    0.1,    0.2,    0.2,    0.1,    0.0,    0.1,    0.3,    0.2,    0.1,    0.1,    0.2,    0.2,    0.2,    0.1,    0.1,    0.1,    0.1,    0.1,    0.1,    0.1,    0.1,    0.1,    0.2,    0.2,    0.2,    0.2,    0.2,    0.3,    0.2,    0.2,    0.2,    0.1,    0.2,    0.2,    0.0,  999.0,    0.0,  999.0,   -0.1,   -0.0,   -0.1,  999.0,  999.0,  999.0,  999.0,   -0.1,  999.0,   -0.6,   -0.6,   -0.6,   -0.6,   -0.5,   -0.5,   -0.6,   -0.5,   -0.4,   -0.9,   -1.1,   -1.2,   -1.2,   -1.4,   -1.5,   -1.6,   -1.6,   -1.5
2007/08/04 06:10,    0.0,    0.0,    0.1,    0.1,    0.4,    0.5,    0.5,    0.5,    0.6,    0.5,    0.5,    0.4,    0.4,    0.3,    0.4,    0.3,    0.4,    0.3,    0.3,    0.3,    0.2,    0.4,    0.4,    0.4,    0.1,    0.3,    0.6,    0.3,    0.3,    0.5,    0.5,    0.5,    0.5,    0.3,    0.3,    0.2,    0.3,    0.2,    0.3,    0.2,    0.2,    0.2,    0.2,    0.2,    0.2,    0.2,    0.1,   -0.0,   -0.1,   -0.1,   -0.2,  999.0,  999.0,   -0.1,  999.0,  999.0,  999.0,  999.0,  999.0,  999.0,  999.0,  999.0,   -0.7,   -1.1,   -1.0,   -0.5,   -0.8,   -1.2,   -1.1,   -1.2,   -1.2,   -1.2,   -1.1,   -1.2,   -1.2,   -1.2,   -1.4,   -1.3,   -1.2,   -1.4
2007/08/04 06:20,    0.0,    0.0,    0.0,    0.0,    0.2,    0.2,    0.2,    0.2,    0.2,    0.2,    0.2,    0.1,    0.2,    0.2,    0.2,    0.2,    0.2,    0.2,    0.2,    0.3,    0.3,    0.4,    0.3,    0.2,    0.0,    0.1,    0.3,    0.2,    0.1,    0.1,    0.2,    0.3,    0.2,    0.1,    0.1,    0.0,    0.2,   -0.0,    0.0,    0.0,    0.1,    0.0,    0.0,    0.0,   -0.1,   -0.1,   -0.2,   -0.3,   -0.3,   -0.4,   -0.5,   -0.4,  999.0,  999.0,  999.0,  999.0,  999.0,  999.0,  999.0,  999.0,  999.0,  999.0,   -2.2,   -2.2,   -2.0,   -2.0,   -2.1,   -2.1,   -1.9,   -1.8,   -1.9,   -1.6,   -1.7,   -2.1,   -1.7,   -1.6,   -1.5,   -1.5,   -1.5,   -1.5
2007/08/04 06:30,    0.0,   -0.0,   -0.0,    0.1,    0.2,    0.2,    0.2,    0.3,    0.4,    0.3,    0.2,    0.2,    0.2,    0.2,    0.1,    0.2,    0.2,    0.3,    0.4,    0.4,    0.4,    0.4,    0.2,    0.1,  999.0,   -0.0,    0.2,    0.2,    0.1,    0.1,    0.2,    0.3,    0.3,    0.1,    0.0,   -0.0,    0.3,    0.2,    0.3,    0.1,    0.1,    0.0,    0.0,   -0.0,   -0.1,   -0.1,   -0.0,   -0.2,   -0.2,   -0.3,   -0.2,   -0.3,  999.0,  999.0,  999.0,   -1.9,   -1.7,   -1.7,   -1.5,   -1.7,   -1.8,   -1.8,   -1.6,   -1.6,   -1.5,   -1.4,   -1.4,   -1.4,   -1.2,   -1.1,   -1.1,   -1.0,   -1.1,   -1.1,   -1.2,   -1.1,   -1.1,   -1.1,   -1.1,   -1.0
2007/08/04 06:40,    0.0,    0.0,    0.1,    0.1,    0.5,    0.6,    0.5,    0.5,    0.4,    0.3,    0.3,    0.3,    0.2,    0.2,    0.2,    0.2,    0.3,    0.4,    0.4,    0.4,    0.4,    0.4,    0.5,    0.3,    0.1,    0.1,    0.4,    0.3,    0.2,    0.2,    0.2,    0.3,    0.3,    0.5,    0.2,   -0.0,    0.1,  999.0,  999.0,    0.1,    0.0,   -0.0,   -0.1,   -0.0,   -0.1,   -0.2,   -0.3,   -0.1,   -0.2,   -0.4,   -0.5,   -0.4,   -0.7,   -2.2,   -1.9,   -1.8,   -1.7,   -1.8,   -1.7,   -1.7,   -1.8,   -1.8,   -1.7,   -1.6,   -1.5,   -1.4,   -1.3,   -1.3,   -1.3,   -1.3,   -1.3,   -1.3,   -1.3,   -1.2,   -1.3,   -1.3,   -1.3,   -1.3,   -1.4,   -1.6
2007/08/04 06:50,  999.0,    0.1,    0.2,    0.4,    0.6,    0.7,    0.5,    0.4,    0.4,    0.3,    0.3,    0.3,    0.3,    0.3,    0.2,    0.3,    0.4,    0.4,    0.4,    0.4,    0.4,    0.4,    0.3,    0.2,    0.0,    0.2,    0.3,    0.3,    0.4,    0.2,    0.3,    0.3,    0.3,    0.4,    0.1,    0.1,  999.0,  999.0,    0.1,    0.2,    0.2,    0.2,    0.1,  999.0,    0.4,  999.0,    0.2,  999.0,  999.0,   -1.6,   -1.6,   -1.8,   -1.9,   -2.0,   -2.0,   -2.1,   -2.0,   -2.0,   -2.0,   -1.9,   -1.8,   -1.7,   -1.5,   -1.3,   -1.2,   -1.2,   -1.2,   -1.1,   -1.1,   -1.2,   -1.1,   -1.2,   -1.2,   -1.2,   -1.2,   -1.1,   -1.1,   -1.1,   -1.2,   -1.2
2007/08/04 07:00,   -0.0,    0.1,    0.2,    0.4,    0.8,    0.8,    0.7,    0.5,    0.5,    0.5,    0.4,    0.4,    0.4,    0.3,    0.3,    0.3,    0.4,    0.4,    0.4,    0.3,    0.4,    0.4,    0.3,    0.2,   -0.0,    0.2,    0.3,    0.3,    0.2,    0.1,    0.1,    0.1,    0.1,    0.2,    0.2,    0.1,   -0.1,  999.0,  999.0,  999.0,    0.1,    0.1,  999.0,  999.0,  999.0,  999.0,   -1.6,   -1.7,   -2.0,   -2.4,   -2.5,   -2.5,   -2.6,   -2.6,   -2.4,   -2.5,   -2.3,   -2.2,   -2.1,   -2.1,   -2.0,   -1.9,   -1.7,   -1.6,   -1.5,   -1.4,   -1.4,   -1.4,   -1.4,   -1.4,   -1.3,   -1.3,   -1.2,   -1.1,   -1.0,   -1.0,   -1.0,   -1.0,   -1.1,   -1.2
2007/08/04 07:10,    0.0,    0.1,    0.4,    0.4,    0.8,    0.6,    0.5,    0.4,    0.4,    0.3,    0.3,    0.4,    0.3,    0.3,    0.3,    0.3,    0.3,    0.3,    0.3,    0.3,    0.4,    0.3,    0.2,    0.1,    0.0,    0.2,    0.4,    0.3,    0.3,    0.3,    0.3,    0.2,    0.2,    0.1,    0.0,    0.2,  999.0,  999.0,  999.0,  999.0,    0.0,    0.1,   -0.0,  999.0,   -0.0,   -0.1,  999.0,   -0.1,   -0.1,   -0.1,  999.0,   -1.0,   -0.5,   -0.4,   -0.4,   -1.3,   -1.5,   -1.5,   -1.6,   -1.6,   -1.6,   -1.5,   -1.5,   -1.4,   -1.3,   -1.3,   -1.3,   -1.3,   -1.2,   -1.2,   -1.1,   -1.1,   -1.1,   -1.0,   -1.0,   -1.0,   -1.0,   -0.8,   -0.7,   -0.7
2007/08/04 07:20,    0.0,    0.1,    0.1,    0.2,    0.6,    0.6,    0.5,    0.5,    0.5,    0.3,    0.3,    0.3,    0.3,    0.2,    0.3,    0.4,    0.4,    0.6,    0.5,    0.6,    0.3,    0.4,    0.3,    0.1,    0.1,    0.2,    0.3,    0.2,    0.3,    0.4,    0.3,    0.2,    0.2,    0.2,    0.2,    0.0,    0.0,  999.0,    0.1,    0.1,    0.1,    0.2,    0.3,    0.1,    0.1,    0.2,   -0.0,    0.0,    0.1,    0.0,  999.0,   -1.0,   -1.0,   -0.7,   -0.6,   -1.5,   -1.6,   -1.6,   -1.5,   -1.5,   -1.5,   -1.5,   -1.5,   -1.4,   -1.3,   -1.3,   -1.2,   -1.2,   -1.2,   -1.2,   -1.2,   -1.2,   -1.2,   -1.1,   -1.0,   -1.1,   -1.0,   -1.0,   -0.9,   -0.9
2007/08/04 07:30,    0.0,    0.0,    0.1,   -0.0,    0.2,    0.3,    0.3,    0.2,    0.2,    0.2,    0.1,    0.2,    0.3,    0.2,    0.3,    0.2,    0.4,    0.4,    0.4,    0.4,    0.4,    0.4,    0.4,    0.3,    0.0,    0.1,    0.4,    0.2,    0.2,    0.2,    0.1,    0.2,    0.2,    0.1,    0.1,    0.0,    0.0,  999.0,    0.2,    0.2,    0.2,    0.2,  999.0,    0.3,    0.3,    0.2,    0.1,    0.2,    0.3,    0.2,    0.1,   -0.8,   -0.5,   -0.4,   -0.3,   -1.4,   -1.3,   -1.1,   -1.2,   -1.1,   -1.2,   -1.2,   -1.2,   -1.3,   -1.3,   -1.3,   -1.3,   -1.3,   -1.3,   -1.3,   -1.3,   -1.3,   -1.2,   -1.1,   -0.9,   -0.9,   -0.9,   -0.8,   -0.8,   -0.7
2007/08/04 07:40,    0.0,    0.0,    0.2,    0.4,    0.6,    0.3,    0.2,    0.1,    0.1,    0.1,   -0.1,    0.0,    0.1,    0.1,    0.1,    0.3,    0.2,    0.2,    0.2,    0.2,    0.1,    0.2,    0.3,    0.2,    0.1,    0.1,    0.2,    0.2,    0.1,    0.2,    0.1,    0.1,    0.1,    0.0,   -0.0,   -0.0,   -0.1,   -0.1,   -0.2,    0.0,   -0.1,   -0.2,   -0.1,   -0.3,   -0.2,   -0.1,   -0.1,   -0.1,   -0.0,   -0.0,    0.0,    0.2,    0.2,    0.1,   -0.0,   -0.5,   -0.8,   -0.8,   -0.9,   -0.9,   -0.9,   -0.9,   -0.9,   -1.0,   -1.0,   -1.0,   -0.9,   -0.9,   -1.0,   -1.1,   -1.2,   -1.2,   -1.1,   -1.1,   -0.9,   -0.9,   -0.8,   -0.7,   -0.8,   -0.8
2007/08/04 07:50,   -0.0,    0.1,    0.1,    0.3,    0.4,    0.4,    0.4,    0.4,    0.3,    0.0,    0.2,    0.3,    0.2,    0.1,    0.2,    0.2,    0.2,    0.4,    0.1,    0.1,    0.1,    0.2,    0.1,    0.1,    0.0,    0.1,    0.1,    0.0,   -0.0,   -0.0,   -0.0,   -0.0,   -0.1,   -0.1,   -0.1,   -0.1,   -0.2,   -0.2,   -0.1,  999.0,   -0.0,   -0.1,  999.0,   -0.0,    0.0,    0.0,    0.0,   -0.0,    0.0,   -0.0,    0.2,    0.1,    0.1,    0.1,    0.0,    0.1,   -0.3,   -0.5,   -0.5,   -0.7,   -0.7,   -0.7,   -0.5,   -0.6,   -0.7,   -0.8,   -0.7,   -0.7,   -0.8,   -1.0,   -1.1,   -1.1,   -1.0,   -1.0,   -0.9,   -0.8,   -0.8,   -0.8,   -0.7,  999.0
2007/08/04 08:00,   -0.0,   -0.0,    0.2,    0.2,    0.3,    0.5,    0.4,    0.3,    0.1,    0.2,    0.3,    0.2,    0.1,    0.1,    0.0,    0.1,    0.1,    0.4,    0.3,    0.4,    0.4,    0.3,    0.3,    0.2,    0.0,    0.1,    0.1,    0.1,    0.1,    0.0,    0.1,    0.0,    0.0,    0.2,    0.1,    0.1,    0.1,    0.2,    0.1,    0.0,    0.1,    0.0,  999.0,   -0.2,  999.0,  999.0,    0.0,    0.1,    0.1,    0.1,    0.2,    0.2,    0.1,  999.0,    0.1,    0.1,    0.1,   -0.4,   -0.7,   -0.8,   -0.8,   -0.7,   -0.5,   -0.6,   -0.5,   -0.6,   -0.5,   -0.6,   -0.7,   -0.5,   -0.6,   -0.6,   -0.7,   -0.6,   -0.7,   -0.7,   -0.6,   -0.6,   -0.6,  999.0
2007/08/04 08:10,    0.0,    0.0,   -0.0,    0.2,    0.4,    0.4,    0.4,    0.2,    0.2,    0.2,    0.1,    0.2,    0.2,    0.2,    0.2,    0.2,    0.2,    0.2,    0.4,    0.4,    0.5,    0.5,    0.3,    0.2,    0.1,    0.1,    0.2,    0.1,    0.0,    0.0,    0.1,    0.1,    0.1,    0.1,    0.2,    0.2,    0.1,    0.1,    0.1,  999.0,    0.0,   -0.1,  999.0,  999.0,  999.0,   -0.1,   -0.1,   -0.1,   -0.1,   -0.1,   -0.1,   -0.1,  999.0,   -0.3,   -0.2,  999.0,   -0.1,  999.0,   -0.3,   -0.4,   -0.6,   -0.7,   -0.7,   -0.7,   -0.6,   -0.5,   -0.4,   -0.4,   -0.5,   -0.6,   -0.4,   -0.4,   -0.5,   -0.5,   -0.4,   -0.4,   -0.5,   -0.5,   -0.4,   -0.5
2007/08/04 08:20,    0.0,    0.2,    0.3,    0.1,    0.6,    0.2,    0.2,    0.2,    0.2,    0.2,    0.3,    0.3,    0.2,    0.3,    0.4,    0.3,    0.3,    0.4,    0.2,    0.4,    0.3,    0.3,    0.2,    0.2,    0.0,    0.2,    0.0,    0.1,    0.0,    0.1,    0.0,    0.1,    0.2,    0.2,    0.3,    0.3,    0.3,    0.3,    0.4,    0.3,    0.3,    0.0,    0.1,  999.0,  999.0,   -0.0,   -0.2,    0.0,   -0.1,   -0.0,   -0.1,   -0.0,   -0.2,  999.0,  999.0,  999.0,  999.0,  999.0,  999.0,  999.0,   -0.4,   -0.5,   -0.3,   -0.5,   -0.7,   -0.6,   -0.6,   -0.4,   -0.7,   -0.8,   -0.8,   -0.6,   -0.7,   -0.9,   -0.6,   -0.5,   -0.6,  999.0,  999.0,  999.0
2007/08/04 08:30,   -0.0,    0.1,    0.1,   -0.2,    0.1,    0.2,    0.1,    0.1,    0.2,    0.2,    0.1,   -0.0,    0.1,    0.1,    0.3,    0.2,    0.3,    0.3,    0.3,    0.4,    0.5,    0.3,    0.2,    0.1,    0.0,    0.1,    0.2,    0.1,    0.0,    0.0,    0.1,    0.1,    0.1,    0.1,    0.3,    0.3,    0.2,    0.3,    0.2,  999.0,    0.3,    0.2,    0.2,  999.0,  999.0,    0.1,   -0.0,    0.0,   -0.0,    0.0,    0.0,  999.0,  999.0,   -0.2,  999.0,   -0.1,   -0.1,   -0.2,   -0.1,   -0.8,   -0.6,   -0.7,   -0.6,   -0.7,   -0.7,   -0.8,   -0.9,   -1.0,   -1.0,   -1.1,   -0.9,   -0.7,   -0.6,   -0.6,   -0.6,   -0.5,   -0.6,  999.0,   -0.8,   -0.7
2007/08/04 08:40,   -0.1,   -0.0,    0.1,    0.1,    0.2,    0.2,    0.2,    0.2,    0.2,    0.2,    0.2,    0.2,    0.1,    0.1,    0.2,    0.4,    0.4,    0.4,    0.3,    0.3,    0.4,    0.4,    0.4,    0.2,    0.1,    0.1,    0.2,    0.2,    0.2,    0.0,    0.1,    0.1,    0.1,    0.1,    0.2,    0.1,    0.1,    0.1,    0.0,    0.1,   -0.1,   -0.1,   -0.1,  999.0,  999.0,   -0.2,   -0.2,   -0.1,   -0.2,   -0.1,   -0.2,  999.0,  999.0,  999.0,    0.2,  999.0,  999.0,    0.1,    0.2,  999.0,    0.2,    0.0,   -0.1,   -0.4,   -0.6,   -0.6,   -0.7,   -0.7,   -0.6,   -0.7,   -0.7,   -0.7,   -0.8,   -0.9,   -0.9,   -0.9,   -0.9,   -0.9,   -0.8,   -0.9
2007/08/04 08:50,   -0.0,    0.0,   -0.0,    0.0,    0.1,    0.2,    0.2,    0.1,    0.1,    0.1,    0.1,    0.0,   -0.0,   -0.2,   -0.0,    0.1,    0.2,    0.2,    0.3,    0.3,    0.5,    0.4,    0.3,    0.2,    0.1,    0.2,    0.2,    0.1,    0.2,    0.1,    0.0,    0.1,    0.1,    0.2,    0.2,    0.3,    0.3,    0.4,    0.3,    0.2,    0.1,   -0.0,   -0.2,  999.0,  999.0,   -0.1,   -0.1,    0.1,   -0.1,   -0.1,   -0.0,  999.0,  999.0,    0.1,    0.1,    0.3,    0.1,    0.2,    0.2,    0.1,    0.0,    0.0,  999.0,  999.0,  999.0,   -0.9,   -0.8,   -0.8,   -0.4,   -0.5,   -0.9,   -0.9,   -1.0,   -0.9,   -0.9,   -0.9,   -0.8,   -0.9,   -0.9,   -0.8
2007/08/04 09:00,    0.0,    0.0,    0.0,    0.2,    0.4,    0.3,    0.1,    0.1,    0.1,    0.0,    0.0,   -0.0,   -0.1,   -0.1,   -0.1,   -0.2,   -0.1,    0.0,    0.1,    0.1,    0.2,    0.2,    0.2,   -0.0,    0.1,    0.2,    0.1,    0.1,    0.0,    0.1,    0.1,   -0.0,    0.0,    0.2,    0.1,    0.2,    0.3,    0.2,    0.1,    0.1,    0.1,    0.1,   -0.1,  999.0,   -0.1,    0.0,   -0.1,   -0.1,   -0.1,   -0.1,   -0.1,   -0.0,  999.0,    0.0,    0.1,    0.1,  999.0,    0.1,    0.1,    0.0,   -0.0,    0.1,  999.0,   -0.5,   -0.6,   -0.5,   -0.9,   -0.3,   -0.5,   -0.8,   -0.9,   -1.0,   -1.0,   -1.1,   -1.1,   -0.9,   -0.9,   -0.9,   -0.9,   -1.0
2007/08/04 09:10,    0.0,    0.0,    0.0,    0.1,    0.3,    0.3,    0.2,    0.1,    0.1,    0.1,    0.1,    0.1,    0.1,    0.1,    0.0,   -0.2,    0.2,    0.0,    0.3,    0.3,    0.2,    0.3,    0.5,    0.4,    0.2,    0.2,    0.4,    0.1,    0.1,    0.1,    0.1,    0.0,    0.1,    0.3,    0.3,    0.4,    0.2,    0.2,    0.0,    0.0,   -0.1,   -0.0,   -0.1,  999.0,  999.0,   -0.1,   -0.3,   -0.3,   -0.3,   -0.4,   -0.1,   -0.3,  999.0,   -0.2,   -0.1,   -0.1,   -0.2,  999.0,   -0.0,   -0.0,    0.0,   -0.1,  999.0,   -0.8,   -0.5,   -0.4,    0.2,    0.2,  999.0,   -0.4,   -0.9,   -0.8,   -0.8,   -0.8,   -0.8,   -0.9,   -0.9,   -0.9,   -0.8,   -0.9
2007/08/04 09:20,    0.0,    0.0,    0.0,    0.1,    0.1,    0.1,    0.1,    0.1,    0.2,    0.2,    0.2,    0.2,    0.2,    0.2,    0.1,    0.1,    0.1,    0.0,    0.1,    0.1,    0.2,    0.1,   -0.2,    0.1,  999.0,    0.2,    0.2,    0.1,    0.0,    0.1,    0.1,    0.0,    0.1,    0.2,    0.3,    0.3,    0.4,    0.3,    0.3,    0.1,    0.1,    0.0,    0.2,    0.0,  999.0,    0.2,    0.2,    0.1,    0.2,   -0.2,    0.0,   -0.0,   -0.0,    0.1,    0.2,    0.0,   -0.0,  999.0,    0.1,    0.2,    0.2,  999.0,   -0.8,   -0.9,   -0.9,   -0.2,   -0.1,   -0.1,   -0.5,   -0.7,   -0.9,   -0.9,   -0.9,   -0.9,   -0.9,   -1.0,   -1.0,   -0.9,   -0.9,   -0.8
2007/08/04 09:30,    0.0,    0.0,    0.0,    0.0,    0.1,    0.0,    0.0,    0.1,    0.1,    0.1,    0.0,   -0.0,    0.0,    0.1,    0.1,    0.1,    0.1,    0.0,    0.0,    0.1,    0.3,    0.1,   -0.0,    0.0,    0.2,    0.1,    0.1,   -0.0,    0.0,    0.0,    0.1,    0.1,    0.1,    0.2,    0.3,    0.1,    0.2,    0.2,    0.1,    0.1,    0.0,   -0.2,   -0.2,  999.0,  999.0,   -0.1,   -0.0,   -0.0,   -0.3,   -0.1,   -0.2,  999.0,  999.0,    0.1,    0.1,    0.1,    0.4,    0.3,    0.1,    0.0,    0.1,   -0.6,   -0.6,   -0.6,   -0.6,   -0.1,    0.1,  999.0,   -0.5,   -0.7,   -0.9,   -1.0,   -1.0,   -1.0,   -1.0,   -1.3,   -1.2,   -1.1,   -1.1,   -1.1
2007/08/04 09:40,  999.0,    0.0,   -0.0,    0.1,    0.1,    0.0,    0.0,    0.0,   -0.0,   -0.0,   -0.1,   -0.1,   -0.1,    0.0,   -0.0,   -0.0,   -0.2,   -0.0,    0.2,    0.1,    0.1,   -0.1,   -0.1,   -0.1,   -0.1,    0.2,    0.0,    0.0,   -0.1,    0.0,    0.0,    0.0,    0.1,    0.1,    0.2,    0.1,    0.3,    0.2,    0.3,    0.1,    0.0,    0.0,   -0.1,   -0.1,   -0.1,   -0.0,   -0.3,   -0.1,   -0.1,   -0.1,   -0.2,    0.0,   -0.1,  999.0,  999.0,  999.0,  999.0,   -0.1,    0.1,   -0.0,  999.0,   -0.4,   -0.8,   -0.8,  999.0,  999.0,   -0.2,  999.0,  999.0,   -0.7,   -0.8,   -0.9,   -0.9,   -0.9,   -0.8,   -0.9,   -0.9,   -0.9,   -0.9,   -0.8
2007/08/04 09:50,    0.0,    0.0,    0.0,    0.0,    0.0,   -0.0,   -0.0,   -0.0,   -0.0,   -0.0,   -0.1,   -0.1,   -0.0,   -0.0,   -0.0,   -0.1,   -0.1,   -0.1,   -0.0,   -0.1,    0.0,   -0.2,    0.1,    0.3,    0.1,    0.2,    0.1,    0.0,   -0.0,    0.1,    0.2,    0.1,    0.1,    0.1,    0.5,    0.5,    0.5,    0.4,    0.3,    0.1,    0.1,    0.0,    0.0,  999.0,    0.1,   -0.0,   -0.0,   -0.1,   -0.1,   -0.1,   -0.1,    0.0,   -0.1,  999.0,  999.0,   -0.2,   -0.1,   -0.1,  999.0,   -0.1,  999.0,   -0.2,  999.0,   -0.0,  999.0,  999.0,  999.0,   -0.2,  999.0,   -0.8,   -0.9,   -0.9,   -0.9,   -0.9,   -0.8,   -0.8,   -0.8,   -0.9,   -0.9,   -0.8
2007/08/04 10:00,    0.0,    0.0,    0.0,    0.0,   -0.0,    0.1,    0.0,    0.0,    0.1,   -0.0,   -0.0,   -0.0,    0.0,    0.1,    0.0,    0.1,    0.2,    0.1,   -0.0,    0.1,   -0.0,    0.2,    0.0,    0.1,    0.0,    0.1,    0.0,    0.0,   -0.0,    0.0,    0.1,   -0.0,    0.0,    0.1,    0.1,    0.2,    0.3,    0.2,    0.1,   -0.0,   -0.0,   -0.0,   -0.2,   -0.1,   -0.2,   -0.2,   -0.2,   -0.3,   -0.1,   -0.1,   -0.2,   -0.0,   -0.0,  999.0,  999.0,    0.1,    0.2,  999.0,   -0.0,   -0.1,   -0.0,   -0.0,  999.0,   -0.3,   -0.4,   -0.6,  999.0,   -0.1,    0.1,   -1.0,   -0.9,   -0.9,   -0.8,   -0.7,   -0.7,   -0.7,   -0.8,   -0.9,   -0.8,   -0.8
2007/08/04 10:10,    0.0,    0.0,    0.0,   -0.1,   -0.1,    0.0,   -0.1,    0.0,    0.1,    0.1,    0.1,    0.1,    0.1,    0.1,    0.1,    0.1,    0.2,    0.1,    0.2,    0.1,    0.1,    0.1,    0.1,    0.1,    0.1,    0.1,    0.1,    0.1,    0.0,    0.0,    0.1,    0.0,    0.0,    0.1,    0.2,    0.3,    0.3,    0.3,    0.2,    0.1,    0.1,    0.1,  999.0,  999.0,   -0.1,   -0.0,   -0.0,   -0.0,  999.0,    0.0,   -0.0,    0.1,  999.0,  999.0,  999.0,    0.0,    0.0,  999.0,   -0.0,   -0.1,   -0.2,   -0.2,   -0.8,   -0.9,   -0.9,   -0.8,   -0.7,   -0.3,   -0.3,   -0.9,   -1.1,   -1.0,   -0.9,   -0.8,   -0.8,   -0.8,   -0.8,   -0.8,   -0.7,   -0.6
2007/08/04 10:20,    0.0,   -0.0,   -0.0,    0.0,    0.0,    0.1,   -0.0,    0.2,    0.1,    0.2,    0.1,   -0.0,   -0.1,   -0.1,    0.1,   -0.0,    0.2,    0.2,    0.2,    0.1,    0.1,    0.2,    0.2,    0.1,    0.0,    0.1,    0.0,    0.1,    0.0,    0.0,    0.0,    0.0,    0.0,   -0.0,    0.0,    0.0,    0.1,    0.0,   -0.0,   -0.0,   -0.0,   -0.1,   -0.1,  999.0,   -0.1,   -0.1,   -0.0,   -0.0,    0.1,    0.1,    0.0,  999.0,  999.0,  999.0,  999.0,   -0.0,    0.0,    0.0,  999.0,   -0.1,   -0.1,   -0.4,   -0.6,   -0.7,   -0.7,   -0.6,  999.0,   -0.2,  999.0,  999.0,   -0.4,  999.0,   -0.0,   -0.4,   -0.7,   -0.6,   -0.7,   -0.5,   -0.6,  999.0
2007/08/04 10:30,    0.0,    0.0,   -0.0,    0.1,    0.2,    0.2,    0.0,    0.0,    0.0,    0.2,    0.1,    0.1,    0.1,    0.1,    0.1,    0.1,   -0.1,    0.2,    0.0,    0.1,    0.2,    0.2,    0.1,    0.1,    0.0,    0.0,    0.0,    0.1,    0.0,   -0.0,    0.1,    0.0,    0.0,    0.0,    0.1,    0.2,    0.2,    0.2,    0.0,    0.0,   -0.0,   -0.1,   -0.1,   -0.0,   -0.1,   -0.1,   -0.1,   -0.0,    0.0,    0.1,    0.1,    0.1,    0.2,  999.0,    0.3,   -0.0,  999.0,   -0.0,    0.0,    0.0,   -0.1,   -0.2,   -0.2,   -0.4,   -0.6,   -0.6,   -0.3,   -0.3,   -0.1,  999.0,  999.0,  999.0,   -0.0,  999.0,  999.0,  999.0,  999.0,  999.0,  999.0,  999.0
2007/08/04 10:40,    0.0,    0.0,    0.0,    0.0,    0.1,    0.4,    0.2,    0.4,    0.3,    0.1,    0.1,    0.1,    0.4,    0.2,    0.0,    0.1,    0.2,    0.3,    0.0,    0.2,    0.2,    0.2,    0.1,    0.1,    0.0,    0.0,    0.1,    0.0,    0.1,    0.1,    0.0,    0.1,   -0.0,    0.1,    0.0,    0.1,    0.2,    0.1,   -0.1,   -0.1,   -0.1,   -0.1,   -0.0,   -0.3,   -0.3,   -0.1,   -0.1,   -0.2,   -0.1,    0.0,   -0.1,   -0.1,    0.1,  999.0,    0.5,  999.0,  999.0,  999.0,  999.0,   -0.5,   -1.0,   -1.0,   -1.1,   -1.0,   -0.9,   -0.8,   -0.6,   -0.5,   -0.2,   -0.4,   -0.2,   -0.3,   -0.1,  999.0,  999.0,  999.0,  999.0,  999.0,    0.2,    0.1
2007/08/04 10:50,   -0.0,   -0.0,   -0.0,    0.0,    0.1,    0.1,    0.1,    0.1,    0.1,   -0.0,    0.3,    0.3,    0.2,  999.0,    0.1,    0.1,    0.2,    0.1,    0.2,    0.3,    0.3,    0.1,    0.1,    0.2,    0.1,    0.1,    0.2,    0.0,    0.0,    0.1,    0.1,    0.0,    0.0,    0.0,    0.0,    0.0,    0.1,    0.2,    0.1,   -0.0,    0.0,  999.0,   -0.2,    0.0,   -0.1,   -0.1,   -0.2,   -0.2,   -0.3,   -0.2,   -0.3,   -0.2,   -0.2,  999.0,  999.0,   -0.1,   -0.1,   -0.0,  999.0,  999.0,   -0.8,   -0.6,   -0.6,   -0.7,   -0.6,   -0.5,   -0.2,  999.0,    0.1,    0.3,    0.4,    0.1,    0.3,  999.0,   -0.0,  999.0,  999.0,  999.0,  999.0,  999.0
2007/08/04 11:00,    0.0,    0.0,   -0.0,    0.1,   -0.0,   -0.0,    0.2,    0.2,    0.1,   -0.0,    0.0,    0.0,    0.0,    0.0,    0.2,    0.2,    0.2,    0.3,    0.2,    0.3,    0.3,    0.2,    0.1,    0.1,    0.1,    0.1,    0.2,    0.0,    0.0,    0.0,    0.1,    0.0,    0.1,    0.0,    0.0,    0.0,    0.1,    0.1,    0.1,    0.1,    0.0,   -0.1,    0.0,  999.0,  999.0,   -0.1,   -0.0,    0.1,    0.0,   -0.0,   -0.1,   -0.1,   -0.1,   -0.1,  999.0,   -0.1,    0.1,  999.0,  999.0,  999.0,   -0.8,   -0.7,   -0.6,   -0.7,   -0.7,   -0.6,   -0.5,   -0.3,   -0.1,    0.2,    0.2,    0.3,    0.2,    0.2,  999.0,  999.0,  999.0,  999.0,  999.0,  999.0
2007/08/04 11:10,    0.0,   -0.0,    0.0,    0.0,    0.1,    0.1,   -0.0,   -0.0,   -0.0,   -0.0,   -0.1,   -0.1,   -0.1,   -0.1,   -0.0,   -0.1,    0.1,    0.2,    0.1,    0.2,    0.3,    0.3,    0.1,    0.1,    0.1,    0.2,    0.2,    0.1,    0.1,    0.1,    0.1,    0.0,   -0.0,    0.0,    0.0,    0.1,    0.1,    0.0,    0.0,    0.0,   -0.0,    0.0,   -0.1,   -0.1,  999.0,   -0.1,   -0.0,   -0.0,   -0.0,    0.1,    0.1,    0.0,    0.1,    0.3,    0.1,    0.1,  999.0,  999.0,   -0.7,   -0.7,   -0.8,   -0.5,   -0.7,   -0.8,   -0.8,   -0.8,   -0.7,   -0.6,   -0.4,   -0.2,   -0.1,   -0.0,   -0.1,   -0.1,  999.0,  999.0,  999.0,  999.0,  999.0,  999.0
2007/08/04 11:20,    0.0,   -0.0,   -0.0,    0.0,    0.0,    0.0,    0.1,    0.1,   -0.0,   -0.0,    0.1,    0.1,    0.1,    0.1,    0.1,    0.1,    0.1,    0.2,    0.1,    0.1,    0.1,    0.1,    0.1,    0.2,    0.3,    0.3,    0.4,    0.1,    0.1,    0.0,    0.1,    0.1,    0.0,    0.1,    0.1,    0.0,    0.1,   -0.0,   -0.1,   -0.2,   -0.2,   -0.0,   -0.1,   -0.2,    0.0,   -0.0,  999.0,    0.3,    0.2,    0.3,    0.2,    0.2,  999.0,  999.0,   -1.2,   -1.3,   -0.9,   -1.5,   -1.3,   -1.4,   -1.2,   -1.1,   -1.0,   -1.1,   -1.1,   -1.0,   -0.9,   -0.7,   -0.5,   -0.3,   -0.1,    0.1,   -0.0,    0.1,  999.0,  999.0,  999.0,  999.0,  999.0,  999.0
2007/08/04 11:30,   -0.0,   -0.0,   -0.1,   -0.0,   -0.1,   -0.1,    0.1,    0.1,   -0.0,   -0.1,    0.0,    0.2,    0.3,    0.2,    0.3,    0.3,    0.3,    0.1,    0.1,    0.0,    0.1,    0.1,    0.1,    0.1,    0.0,   -0.0,   -0.0,    0.1,    0.0,    0.0,    0.0,    0.0,    0.0,    0.0,    0.0,    0.0,   -0.1,   -0.1,    0.1,    0.1,   -0.1,   -0.0,   -0.2,   -0.2,   -0.1,   -0.2,    0.1,   -0.0,    0.1,    0.2,  999.0,  999.0,   -1.2,   -1.4,   -1.6,   -1.7,   -1.8,   -1.8,   -1.9,   -1.9,   -1.8,   -1.8,   -1.7,   -1.6,   -1.5,   -1.4,   -1.3,   -1.1,   -0.9,   -0.6,   -0.3,   -0.0,    0.2,    0.1,    0.3,  999.0,  999.0,  999.0,  999.0,  999.0
2007/08/04 11:40,   -0.0,   -0.0,    0.0,    0.0,   -0.1,    0.2,    0.1,    0.3,    0.3,    0.1,    0.2,    0.0,    0.1,    0.0,    0.1,    0.0,    0.1,    0.2,    0.2,    0.2,    0.2,    0.3,    0.1,    0.1,    0.1,    0.1,    0.1,    0.0,    0.1,    0.1,    0.0,    0.0,    0.0,    0.1,    0.1,    0.0,    0.0,    0.0,   -0.0,    0.0,   -0.0,   -0.0,   -0.1,  999.0,  999.0,   -0.1,  999.0,    0.0,  999.0,  999.0,   -1.3,   -1.4,   -1.4,   -1.5,   -1.5,   -1.6,   -1.7,   -1.7,   -1.7,   -1.7,   -1.7,   -1.6,   -1.6,   -1.7,   -1.7,   -1.5,   -1.4,   -1.3,   -1.1,   -0.8,   -0.5,   -0.2,   -0.0,   -0.1,    0.1,  999.0,    0.1,  999.0,  999.0,  999.0
2007/08/04 11:50,    0.0,   -0.0,   -0.0,   -0.1,    0.1,    0.0,    0.1,    0.1,    0.1,    0.1,    0.0,   -0.1,   -0.1,   -0.1,    0.1,   -0.0,    0.1,   -0.0,    0.1,   -0.1,   -0.1,   -0.2,    0.0,    0.0,    0.0,    0.0,   -0.0,    0.0,    0.0,    0.1,    0.1,    0.0,    0.0,    0.2,    0.1,    0.1,    0.0,    0.1,    0.1,    0.1,   -0.0,   -0.2,   -0.1,   -0.1,   -0.2,   -0.2,   -0.0,   -0.0,   -0.0,    0.0,  999.0,  999.0,  999.0,   -1.2,   -1.3,   -1.3,   -1.4,   -1.4,   -1.4,   -1.3,   -1.3,   -1.4,   -1.4,   -1.5,   -1.4,   -1.3,   -1.2,   -1.0,   -0.9,   -0.8,   -0.5,   -0.2,   -0.0,    0.1,    0.1,    0.4,  999.0,  999.0,  999.0,  999.0
2007/08/04 12:00,    0.0,    0.0,    0.0,    0.0,    0.0,    0.0,    0.0,    0.1,    0.0,   -0.0,   -0.1,   -0.1,   -0.1,   -0.1,   -0.1,   -0.2,   -0.2,   -0.2,   -0.1,   -0.1,   -0.0,   -0.0,    0.0,    0.1,    0.0,    0.1,    0.1,    0.0,    0.0,    0.1,    0.1,    0.0,    0.0,    0.2,    0.1,    0.0,    0.0,    0.0,    0.0,   -0.1,   -0.1,   -0.1,   -0.1,   -0.1,   -0.2,   -0.1,   -0.0,    0.1,    0.1,    0.1,    0.1,   -0.2,   -0.7,   -1.2,   -0.8,   -1.3,   -1.4,   -1.3,   -1.3,   -1.3,   -1.2,   -1.2,   -1.2,   -1.3,   -1.3,   -1.3,   -1.1,   -0.9,   -0.7,   -0.5,   -0.4,   -0.3,   -0.1,    0.0,   -0.1,   -0.1,  999.0,  999.0,  999.0,    0.3
2007/08/04 12:10,    0.0,   -0.0,   -0.0,    0.1,    0.1,    0.0,   -0.1,   -0.1,   -0.1,   -0.1,   -0.2,   -0.2,   -0.2,   -0.2,   -0.2,   -0.2,   -0.2,   -0.2,   -0.3,   -0.4,   -0.0,   -0.2,   -0.0,   -0.0,    0.0,   -0.0,    0.0,    0.0,    0.1,    0.0,    0.0,    0.0,    0.0,    0.0,    0.0,   -0.0,    0.1,    0.1,    0.1,  999.0,   -0.1,   -0.1,    0.0,   -0.1,   -0.1,   -0.1,   -0.0,    0.1,    0.2,    0.3,    0.3,    0.2,    0.2,  999.0,    0.2,    0.1,   -1.0,   -0.9,   -1.0,   -0.9,   -0.8,   -0.7,   -0.7,   -0.8,   -0.9,   -0.9,   -0.9,   -0.7,   -0.6,   -0.4,   -0.2,   -0.1,    0.1,    0.1,   -0.0,    0.0,    0.2,  999.0,  999.0,  999.0
2007/08/04 12:20,    0.2,    0.0,   -0.0,    0.1,    0.0,   -0.1,    0.0,    0.0,   -0.0,    0.0,    0.0,   -0.0,   -0.1,   -0.2,   -0.0,    0.0,   -0.1,   -0.2,   -0.1,   -0.1,   -0.1,   -0.1,   -0.1,    0.0,    0.0,    0.0,    0.1,    0.0,    0.0,    0.1,    0.0,    0.0,    0.0,    0.0,    0.1,    0.1,    0.0,    0.1,    0.1,    0.1,    0.0,   -0.0,   -0.0,   -0.1,   -0.1,   -0.1,    0.0,    0.1,    0.1,    0.2,    0.0,    0.1,    0.1,    0.0,    0.1,  999.0,   -0.5,   -0.8,   -0.9,   -0.8,   -0.8,   -0.9,   -0.9,   -0.9,   -1.0,   -1.1,   -1.1,   -0.9,   -0.7,   -0.6,   -0.4,   -0.3,  999.0,   -0.1,   -0.1,   -0.0,   -0.1,    0.0,  999.0,  999.0
2007/08/04 12:30,   -0.0,    0.0,    0.0,    0.0,   -0.1,    0.1,    0.0,   -0.1,   -0.0,   -0.1,   -0.1,   -0.2,   -0.2,   -0.1,   -0.1,   -0.2,   -0.2,   -0.0,    0.3,    0.1,    0.1,    0.1,    0.0,    0.0,    0.0,    0.0,    0.1,    0.1,    0.1,    0.1,    0.0,   -0.0,   -0.0,    0.0,    0.0,   -0.0,    0.0,    0.0,   -0.2,   -0.0,   -0.1,   -0.2,  999.0,    0.1,   -0.3,   -0.2,    0.1,  999.0,    0.2,    0.1,    0.0,    0.1,    0.1,    0.1,   -0.0,    0.1,  999.0,   -0.8,   -0.7,   -0.7,   -0.7,   -0.7,   -0.7,   -0.7,   -0.6,   -0.6,   -0.7,   -0.6,   -0.6,   -0.3,   -0.1,  999.0,    0.0,    0.0,   -0.0,   -0.1,   -0.1,    0.1,  999.0,  999.0
2007/08/04 12:40,   -0.0,    0.0,    0.0,    0.0,    0.0,    0.0,    0.0,    0.1,   -0.1,   -0.1,   -0.3,   -0.1,   -0.2,   -0.0,   -0.0,   -0.1,    0.1,   -0.1,    0.1,    0.2,    0.2,    0.1,    0.1,    0.0,    0.0,    0.0,    0.1,    0.2,    0.0,   -0.0,   -0.0,    0.0,    0.0,    0.0,    0.1,    0.1,    0.1,    0.0,    0.0,   -0.0,    0.0,   -0.1,    0.0,    0.0,   -0.2,    0.0,    0.0,   -0.1,   -0.0,   -0.0,    0.0,  999.0,   -0.0,    0.0,   -0.0,   -0.1,   -0.4,   -0.7,   -0.7,   -0.8,   -0.8,   -0.8,   -0.7,   -0.7,   -0.6,   -0.5,   -0.5,   -0.3,   -0.4,   -0.1,    0.1,  999.0,    0.2,    0.2,    0.1,    0.1,    0.2,  999.0,  999.0,  999.0
2007/08/04 12:50,    0.0,    0.0,   -0.0,   -0.2,   -0.5,   -0.4,   -0.4,   -0.4,   -0.2,    0.1,    0.1,    0.2,    0.0,    0.0,    0.1,    0.1,    0.0,   -0.0,    0.0,    0.2,   -0.0,    0.1,    0.0,    0.0,    0.0,    0.0,    0.0,    0.1,    0.1,    0.0,   -0.0,   -0.0,   -0.0,    0.0,    0.0,    0.0,   -0.0,   -0.1,   -0.4,   -0.3,   -0.2,   -0.2,   -0.3,   -0.1,   -0.2,   -0.0,   -0.1,  999.0,    0.1,    0.1,    0.1,    0.1,    0.1,    0.1,    0.1,    0.0,   -0.2,   -0.6,   -0.6,   -0.7,   -0.7,   -0.7,   -0.8,   -0.7,   -0.5,  999.0,   -0.1,  999.0,   -0.3,   -0.1,    0.0,  999.0,  999.0,    0.1,    0.1,    0.1,    0.2,   -0.0,  999.0,  999.0
2007/08/04 13:00,   -0.0,   -0.0,   -0.0,   -0.1,   -0.2,   -0.7,   -0.9,   -0.8,   -1.0,   -0.9,  999.0,   -1.3,   -0.4,   -0.5,   -0.3,   -0.5,   -0.0,   -0.2,   -0.3,   -0.4,   -0.3,    0.1,    0.0,   -0.0,    0.0,    0.0,    0.0,    0.1,   -0.0,    0.0,    0.0,    0.0,    0.0,    0.0,    0.0,    0.0,    0.1,  999.0,   -0.2,   -0.1,   -0.1,   -0.1,   -0.2,   -0.0,   -0.1,   -0.0,  999.0,    0.0,  999.0,    0.0,    0.1,   -0.0,    0.1,    0.0,   -0.0,    0.0,   -0.1,   -0.0,   -0.2,   -0.4,   -0.4,   -0.4,   -0.3,  999.0,  999.0,  999.0,   -0.2,  999.0,   -0.3,   -0.1,   -0.0,    0.0,   -0.1,   -0.1,    0.1,    0.1,    0.2,  999.0,  999.0,    0.3
2007/08/04 13:10,    0.0,    0.0,    0.0,    0.0,   -0.0,   -0.1,   -0.2,   -0.2,   -0.3,   -0.3,   -0.0,  999.0,   -0.8,   -0.6,   -0.4,   -0.3,   -0.2,   -0.4,   -0.3,   -0.4,   -0.1,   -0.1,    0.0,    0.0,    0.0,    0.0,    0.0,    0.1,   -0.0,    0.0,    0.0,    0.0,    0.0,    0.1,    0.1,    0.0,    0.0,   -0.0,   -0.1,   -0.1,   -0.2,   -0.2,   -0.2,  999.0,   -0.1,   -0.0,   -0.2,   -0.1,  999.0,   -0.0,    0.1,    0.0,    0.1,  999.0,    0.1,    0.1,    0.1,    0.1,   -0.1,    0.0,   -0.0,   -0.2,   -0.3,   -0.3,   -0.4,  999.0,  999.0,  999.0,    0.2,    0.2,    0.2,    0.2,    0.1,    0.2,    0.1,    0.2,    0.3,  999.0,  999.0,  999.0
2007/08/04 13:20,   -0.0,    0.0,    0.0,   -0.0,   -0.1,   -0.2,   -0.3,   -0.4,   -0.3,   -0.5,   -0.3,   -0.2,   -0.2,   -0.1,   -0.2,   -0.3,   -0.2,   -0.2,   -0.5,   -0.4,   -0.1,   -0.0,    0.0,    0.0,   -0.0,   -0.0,    0.0,    0.1,    0.1,    0.0,    0.0,    0.0,    0.0,    0.1,    0.1,    0.1,    0.0,   -0.0,    0.1,   -0.2,   -0.2,   -0.2,   -0.1,  999.0,   -0.1,   -0.3,   -0.1,   -0.1,   -0.1,   -0.0,   -0.0,   -0.0,    0.1,  999.0,    0.2,    0.3,    0.2,   -0.1,    0.2,    0.1,   -0.0,  999.0,   -0.1,   -0.1,    0.1,  999.0,    0.1,    0.1,    0.1,    0.3,    0.3,    0.4,    0.0,    0.2,    0.1,    0.1,    0.1,  999.0,  999.0,   -0.1
2007/08/04 13:30,    0.0,   -0.0,   -0.1,   -0.0,   -0.0,   -0.2,   -0.3,   -0.5,   -0.4,   -0.3,   -0.2,   -0.3,   -0.2,   -0.1,   -0.2,   -0.1,   -0.2,   -0.1,   -0.0,    0.0,   -0.1,   -0.0,   -0.0,    0.0,    0.0,    0.1,    0.0,    0.0,    0.0,    0.1,    0.0,    0.0,    0.0,    0.2,    0.2,    0.1,    0.0,   -0.0,   -0.0,   -0.2,   -0.2,   -0.2,   -0.2,   -0.3,  999.0,   -0.0,   -0.2,   -0.2,   -0.2,   -0.2,    0.0,   -0.0,   -0.0,   -0.0,    0.0,   -0.2,  999.0,    0.0,    0.1,    0.2,    0.1,    0.0,   -0.0,   -0.1,   -0.2,    0.1,    0.1,    0.2,    0.2,    0.3,    0.3,    0.2,  999.0,    0.2,    0.2,    0.2,    0.2,  999.0,  999.0,  999.0
2007/08/04 13:40,  999.0,    0.0,   -0.1,   -0.1,   -0.3,   -0.3,   -0.6,   -0.6,   -0.6,   -0.5,   -0.6,   -0.2,   -0.2,   -0.3,   -0.4,   -0.2,   -0.2,   -0.3,   -0.2,   -0.2,   -0.2,   -0.0,   -0.0,    0.0,    0.0,    0.0,   -0.0,    0.0,    0.0,    0.0,    0.1,   -0.0,    0.0,    0.0,    0.1,    0.1,    0.1,    0.0,   -0.0,   -0.1,   -0.1,   -0.1,   -0.2,   -0.2,  999.0,   -0.2,   -0.0,   -0.0,   -0.2,   -0.1,   -0.1,   -0.0,   -0.1,   -0.0,   -0.1,   -0.3,   -0.4,   -0.1,    0.1,    0.1,   -0.0,   -0.0,   -0.1,   -0.1,   -0.0,    0.0,    0.0,    0.1,    0.2,    0.2,    0.1,    0.0,    0.0,    0.0,    0.1,    0.3,    0.2,  999.0,  999.0,  999.0
2007/08/04 13:50,    0.0,   -0.0,    0.0,   -0.0,   -0.0,   -0.2,   -0.5,   -0.4,   -0.2,   -0.8,   -0.4,   -0.2,   -0.2,   -0.3,   -0.3,   -0.2,   -0.2,   -0.3,   -0.2,   -0.1,   -0.0,    0.0,   -0.0,   -0.0,    0.0,    0.0,    0.0,    0.0,    0.0,    0.0,    0.0,    0.0,    0.0,    0.0,    0.0,    0.0,    0.0,   -0.0,    0.1,    0.0,   -0.1,   -0.1,   -0.1,   -0.1,  999.0,    0.0,   -0.0,  999.0,    0.0,    0.2,    0.1,    0.1,    0.1,    0.1,    0.1,    0.1,  999.0,   -0.0,   -0.1,   -0.1,    0.0,   -0.0,    0.1,   -0.1,   -0.2,   -0.1,   -0.0,   -0.0,    0.1,    0.0,   -0.0,   -0.1,    0.1,    0.1,    0.2,    0.4,    0.4,    0.6,  999.0,  999.0
2007/08/04 14:00,    0.0,    0.0,   -0.0,   -0.0,   -0.2,   -0.2,   -0.3,    0.0,    0.4,   -0.1,   -0.1,   -0.2,   -0.0,    0.0,   -0.2,   -0.1,    0.0,    0.0,   -0.0,    0.1,   -0.0,    0.0,    0.0,    0.0,    0.0,    0.0,    0.0,    0.0,   -0.0,    0.1,    0.0,   -0.0,    0.0,   -0.0,    0.1,    0.1,    0.1,    0.1,    0.1,   -0.1,    0.1,   -0.2,   -0.0,   -0.0,   -0.0,  999.0,  999.0,   -0.0,   -0.1,   -0.0,    0.0,   -0.1,  999.0,  999.0,  999.0,   -0.0,   -0.0,   -0.1,    0.1,    0.1,    0.1,   -0.0,   -0.0,   -0.1,    0.1,    0.3,    0.4,    0.5,  999.0,    0.4,    0.4,    0.2,    0.2,    0.3,    0.4,    0.4,    0.5,    0.4,  999.0,  999.0
2007/08/04 14:10,    0.0,    0.0,    0.0,    0.0,    0.0,    0.1,   -0.2,   -0.5,   -0.6,  999.0,   -0.1,    0.0,   -0.2,   -0.0,    0.0,   -0.1,    0.2,    0.2,    0.2,    0.2,    0.1,    0.1,    0.1,    0.0,    0.1,    0.0,    0.0,    0.0,    0.1,   -0.0,    0.1,    0.0,   -0.0,   -0.0,    0.0,    0.1,    0.1,    0.1,    0.1,   -0.1,   -0.2,   -0.5,   -0.1,   -0.2,  999.0,   -0.1,  999.0,   -0.1,   -0.1,   -0.1,   -0.2,   -0.1,  999.0,  999.0,    0.0,    0.0,    0.1,    0.0,    0.0,    0.0,   -0.0,   -0.0,   -0.2,   -0.3,   -0.4,   -0.3,    0.0,    0.2,    0.3,    0.4,    0.2,    0.2,    0.2,    0.2,    0.2,    0.2,    0.1,    0.2,  999.0,  999.0
2007/08/04 14:20,    0.0,   -0.0,   -0.0,   -0.0,   -0.1,   -0.1,   -0.2,   -0.2,   -0.4,   -0.5,   -0.2,   -0.1,   -0.1,   -0.1,    0.1,    0.2,    0.1,    0.3,    0.3,    0.3,    0.3,    0.2,    0.1,    0.0,    0.0,    0.1,    0.1,    0.1,    0.1,   -0.0,   -0.0,   -0.0,   -0.0,    0.0,    0.0,    0.1,    0.1,    0.0,    0.0,   -0.1,   -0.1,   -0.3,   -0.0,   -0.0,  999.0,   -0.1,   -0.0,   -0.1,   -0.1,  999.0,   -0.0,    0.0,  999.0,  999.0,   -0.1,   -0.0,  999.0,    0.1,   -0.0,  999.0,   -0.0,   -0.0,   -0.1,   -0.4,   -0.3,   -0.5,   -0.2,   -0.1,   -0.1,  999.0,   -0.1,   -0.0,   -0.0,    0.0,   -0.0,   -0.0,   -0.1,  999.0,  999.0,    0.2
2007/08/04 14:30,   -0.0,   -0.0,   -0.0,   -0.0,   -0.1,   -0.1,   -0.3,   -0.4,   -0.2,   -0.0,    0.3,    0.2,    0.0,    0.0,   -0.1,    0.1,    0.2,    0.3,    0.3,    0.2,    0.3,    0.1,    0.0,    0.1,    0.0,    0.2,    0.2,    0.1,    0.2,    0.3,    0.1,   -0.0,    0.0,   -0.0,    0.0,   -0.0,   -0.2,   -0.4,   -0.3,   -0.4,   -0.1,   -0.4,  999.0,  999.0,  999.0,   -0.2,   -0.3,   -0.2,   -0.0,    0.1,   -0.0,  999.0,  999.0,  999.0,    0.2,    0.2,    0.3,  999.0,  999.0,  999.0,    0.0,    0.0,    0.1,   -0.0,   -0.1,   -0.0,    0.1,    0.1,  999.0,  999.0,  999.0,  999.0,   -0.0,   -0.0,   -0.0,   -0.1,   -0.3,  999.0,  999.0,  999.0
2007/08/04 14:40,    0.0,   -0.0,   -0.0,   -0.0,   -0.0,    0.0,   -0.0,   -0.1,   -0.1,   -0.2,   -0.2,    0.2,    0.3,    0.5,    0.4,    0.5,    0.6,    0.6,    0.6,    0.7,    0.6,    0.5,    0.3,    0.1,    0.0,    0.2,    0.3,    0.1,    0.1,    0.1,    0.1,    0.0,    0.0,   -0.0,    0.2,    0.2,    0.2,    0.1,   -0.1,   -0.1,   -0.2,   -0.4,  999.0,  999.0,   -0.2,   -0.2,   -0.2,   -0.2,   -0.2,   -0.1,   -0.1,    0.0,  999.0,  999.0,    0.1,    0.3,  999.0,  999.0,  999.0,  999.0,  999.0,    0.1,  999.0,  999.0,  999.0,  999.0,   -0.0,   -0.0,   -0.1,  999.0,  999.0,   -0.2,   -0.2,   -0.3,   -0.4,   -0.3,   -0.4,  999.0,  999.0,  999.0
2007/08/04 14:50,   -0.0,   -0.0,   -0.1,   -0.1,   -0.2,   -0.3,   -0.3,   -0.2,   -0.4,   -0.3,   -0.1,   -0.1,    0.3,    0.5,    0.5,    0.3,    0.3,    0.4,    0.4,    0.3,    0.4,    0.4,    0.2,    0.1,    0.0,    0.1,    0.1,    0.0,    0.0,   -0.0,    0.0,    0.0,    0.0,    0.1,    0.4,    0.1,    0.3,    0.2,    0.2,   -0.1,   -0.1,   -0.1,   -0.1,   -0.3,   -0.1,   -0.1,   -0.0,   -0.1,    0.0,    0.0,    0.0,   -0.0,    0.1,    0.0,    0.1,  999.0,  999.0,  999.0,  999.0,  999.0,  999.0,    0.5,  999.0,  999.0,  999.0,    0.2,    0.2,    0.2,    0.1,  999.0,  999.0,   -0.1,   -0.1,   -0.2,   -0.3,   -0.3,   -0.3,   -0.4,   -0.4,   -0.2
2007/08/04 15:00,   -0.0,   -0.0,   -0.0,   -0.1,   -0.1,   -0.3,   -0.1,   -0.2,   -0.2,   -0.4,   -0.3,   -0.6,   -0.2,    0.1,    0.0,    0.0,    0.1,    0.1,    0.2,    0.2,    0.1,    0.1,    0.1,    0.1,    0.0,    0.2,    0.1,    0.1,    0.1,    0.0,    0.0,    0.0,    0.1,    0.1,    0.0,    0.0,    0.1,    0.1,    0.1,   -0.0,   -0.0,    0.1,    0.0,    0.1,    0.2,    0.2,    0.2,    0.2,    0.2,    0.2,    0.1,    0.1,    0.1,  999.0,    0.0,    0.1,  999.0,  999.0,    0.1,    0.1,    0.2,    0.4,    0.5,    0.3,    0.4,    0.1,    0.2,    0.2,  999.0,   -0.0,   -0.0,    0.0,    0.0,   -0.1,   -0.1,   -0.1,   -0.2,   -0.3,   -0.3,  999.0
2007/08/04 15:10,   -0.0,   -0.0,   -0.1,   -0.2,   -0.2,   -0.2,   -0.5,   -0.4,   -0.4,   -0.4,    0.1,    0.1,    0.3,    0.0,    0.1,    0.1,    0.3,    0.1,    0.2,    0.2,    0.3,    0.1,    0.1,    0.1,    0.1,    0.1,    0.1,    0.1,    0.1,    0.0,    0.0,    0.1,    0.2,    0.1,    0.1,    0.0,    0.1,    0.1,    0.1,   -0.0,   -0.2,   -0.1,    0.0,  999.0,   -0.0,    0.1,    0.0,    0.0,   -0.1,   -0.1,   -0.0,  999.0,   -0.0,  999.0,    0.2,    0.3,    0.3,    0.2,  999.0,    0.1,  999.0,    0.1,    0.3,    0.3,    0.3,    0.3,    0.4,  999.0,  999.0,  999.0,  999.0,    0.1,   -0.0,    0.1,    0.0,   -0.0,   -0.0,    0.4,   -0.2,   -0.4
2007/08/04 15:20,    0.0,    0.0,   -0.0,   -0.1,   -0.3,   -0.4,   -0.1,   -0.4,   -0.3,   -0.1,   -0.5,   -0.7,   -0.9,   -0.9,   -0.5,   -0.2,   -0.4,   -0.1,   -0.1,   -0.1,    0.1,    0.2,    0.0,    0.0,   -0.0,   -0.0,   -0.0,   -0.1,   -0.1,   -0.1,   -0.0,    0.0,    0.0,    0.1,    0.1,    0.0,    0.0,    0.1,    0.1,   -0.1,   -0.1,   -0.0,  999.0,   -0.1,    0.2,    0.0,   -0.1,   -0.0,   -0.0,    0.1,    0.2,    0.3,  999.0,    0.5,  999.0,    0.4,    0.2,    0.5,    0.4,    0.2,    0.1,  999.0,    0.0,    0.1,    0.0,    0.0,    0.1,  999.0,  999.0,  999.0,   -0.1,   -0.2,   -0.0,   -0.0,    0.1,    0.0,   -0.1,  999.0,   -0.2,   -0.2
2007/08/04 15:30,   -0.0,   -0.0,   -0.0,   -0.0,   -0.0,   -0.0,    0.2,    0.3,    0.3,    0.1,    0.1,    0.2,    0.1,    0.1,    0.1,    0.1,    0.2,    0.1,    0.2,    0.2,    0.3,    0.0,    0.1,    0.0,    0.0,    0.1,    0.1,   -0.0,    0.0,   -0.0,   -0.0,   -0.0,    0.0,    0.0,    0.1,    0.0,    0.2,    0.0,    0.1,    0.1,   -0.0,    0.0,    0.0,   -0.1,  999.0,   -0.1,   -0.1,   -0.1,   -0.1,    0.0,    0.1,    0.2,  999.0,  999.0,  999.0,  999.0,  999.0,  999.0,  999.0,    0.0,  999.0,  999.0,  999.0,    0.2,    0.1,    0.1,    0.3,  999.0,  999.0,    0.1,    0.2,    0.2,    0.2,    0.1,   -0.0,   -0.0,    0.0,    0.1,  999.0,    0.2
2007/08/04 15:40,  999.0,    0.0,    0.0,   -0.1,   -0.1,   -0.1,   -0.1,   -0.1,    0.1,    0.1,    0.2,    0.1,    0.3,    0.1,    0.1,    0.2,    0.1,    0.0,   -0.0,    0.1,    0.1,    0.0,    0.0,    0.0,    0.0,    0.0,   -0.1,   -0.0,   -0.1,   -0.1,   -0.0,   -0.0,   -0.0,   -0.0,   -0.0,   -0.0,  999.0,   -0.1,  999.0,   -0.1,  999.0,   -0.0,   -0.2,   -0.1,    0.0,    0.1,    0.1,    0.1,    0.2,    0.1,    0.2,    0.3,  999.0,  999.0,    0.2,    0.2,  999.0,  999.0,    0.1,    0.0,   -0.0,  999.0,  999.0,  999.0,    0.1,   -0.1,   -0.4,   -0.0,   -0.1,   -0.0,   -0.1,   -0.2,   -0.2,   -0.1,   -0.1,   -0.1,   -0.1,   -0.0,   -0.1,   -0.1
2007/08/04 15:50,    0.0,    0.0,   -0.0,   -0.1,   -0.1,    0.1,    0.2,    0.3,    0.0,    0.0,   -0.1,   -0.1,   -0.0,    0.1,    0.3,    0.6,    0.5,    0.5,    0.6,    0.5,    0.4,    0.4,    0.1,    0.1,    0.1,    0.1,    0.2,    0.2,    0.0,    0.0,    0.0,   -0.0,   -0.0,   -0.1,   -0.1,   -0.1,   -0.1,    0.0,   -0.1,    0.1,    0.1,   -0.1,   -0.1,   -0.2,   -0.1,   -0.1,   -0.1,   -0.1,   -0.1,   -0.1,   -0.1,  999.0,  999.0,  999.0,  999.0,  999.0,    0.0,    0.1,    0.0,    0.0,    0.0,    0.1,    0.2,  999.0,    0.1,    0.2,    0.2,  999.0,  999.0,  999.0,    0.1,    0.1,    0.0,    0.0,   -0.0,   -0.0,    0.0,    0.1,    0.1,    0.1
2007/08/04 16:00,    0.0,   -0.0,    0.0,   -0.0,    0.0,   -0.1,   -0.2,   -0.2,   -0.1,   -0.2,   -0.2,   -0.3,   -0.3,   -0.0,   -0.1,    0.1,    0.0,   -0.0,   -0.1,   -0.0,   -0.1,   -0.0,    0.1,    0.0,   -0.0,    0.1,    0.1,    0.0,   -0.0,   -0.0,   -0.0,   -0.0,    0.0,   -0.0,    0.0,   -0.0,   -0.0,    0.1,    0.1,    0.1,    0.1,    0.1,    0.2,    0.1,    0.2,    0.1,    0.1,    0.0,  999.0,   -0.0,   -0.0,  999.0,  999.0,  999.0,   -0.0,    0.1,    0.1,   -0.0,    0.1,    0.2,    0.1,   -0.0,    0.0,   -0.0,    0.0,    0.3,  999.0,  999.0,  999.0,  999.0,  999.0,  999.0,    0.4,    0.2,    0.3,    0.3,  999.0,  999.0,    0.3,  999.0
2007/08/04 16:10,   -0.0,    0.0,    0.0,   -0.0,   -0.1,   -0.3,   -0.3,   -0.3,   -0.3,   -0.2,   -0.2,   -0.1,   -0.1,    0.1,    0.2,    0.2,    0.0,   -0.2,   -0.1,   -0.2,   -0.2,   -0.1,    0.0,    0.0,    0.0,    0.0,    0.1,    0.1,    0.1,    0.1,    0.0,    0.1,   -0.0,   -0.0,    0.0,    0.0,    0.1,    0.1,    0.1,    0.2,    0.2,    0.3,    0.1,    0.3,    0.2,    0.2,   -0.0,  999.0,   -0.1,    0.0,   -0.0,  999.0,   -0.5,   -0.5,   -0.1,   -0.1,   -0.1,   -0.1,   -0.0,    0.1,    0.1,   -0.0,  999.0,   -0.0,    0.2,  999.0,  999.0,  999.0,  999.0,  999.0,  999.0,  999.0,  999.0,   -0.0,   -0.0,   -0.0,   -0.2,   -0.0,   -0.2,   -0.3
2007/08/04 16:20,   -0.0,   -0.0,   -0.0,   -0.0,   -0.1,   -0.1,   -0.0,   -0.1,   -0.1,   -0.1,   -0.1,    0.1,   -0.0,    0.1,    0.1,    0.1,    0.1,    0.1,    0.1,    0.2,    0.1,    0.0,    0.0,   -0.0,    0.0,    0.1,    0.1,    0.1,    0.1,    0.1,    0.1,    0.1,    0.0,    0.1,    0.2,    0.0,    0.1,    0.2,    0.1,    0.1,    0.0,   -0.0,   -0.0,   -0.0,   -0.1,   -0.0,   -0.1,   -0.1,   -0.0,  999.0,    0.1,    0.0,  999.0,    0.2,    0.1,    0.2,    0.2,    0.1,   -0.0,    0.1,   -0.2,   -0.1,   -0.1,   -0.1,  999.0,  999.0,  999.0,  999.0,  999.0,  999.0,   -0.3,   -0.4,   -0.3,   -0.2,   -0.2,   -0.3,   -0.4,   -0.3,   -0.3,  999.0
2007/08/04 16:30,   -0.0,   -0.0,    0.0,    0.0,    0.0,    0.0,    0.0,   -0.1,   -0.0,    0.1,    0.2,    0.1,    0.1,    0.1,    0.1,    0.1,    0.3,    0.3,    0.3,    0.3,    0.2,    0.2,    0.0,    0.0,    0.0,    0.0,    0.1,    0.0,   -0.0,   -0.0,   -0.0,   -0.0,   -0.0,   -0.1,   -0.1,   -0.1,   -0.1,   -0.2,   -0.2,   -0.2,    0.1,    0.1,    0.1,    0.2,    0.3,    0.2,  999.0,    0.1,    0.0,    0.0,    0.1,   -0.0,  999.0,   -0.1,   -0.3,   -0.1,   -0.2,   -0.4,   -0.2,  999.0,   -0.2,   -0.2,    0.1,   -0.2,  999.0,  999.0,  999.0,  999.0,  999.0,   -0.1,   -0.2,   -0.3,   -0.3,   -0.2,   -0.3,   -0.3,   -0.3,   -0.1,  999.0,    0.1
2007/08/04 16:40,  999.0,   -0.0,   -0.0,   -0.0,   -0.1,    0.0,   -0.0,    0.1,    0.1,    0.1,    0.1,    0.1,    0.0,    0.0,    0.1,    0.0,    0.0,    0.1,    0.1,    0.0,   -0.0,    0.0,   -0.0,   -0.0,    0.0,   -0.0,   -0.1,   -0.1,   -0.1,   -0.1,   -0.1,   -0.1,   -0.1,   -0.2,   -0.1,   -0.0,   -0.0,   -0.3,   -0.1,   -0.0,    0.1,    0.2,    0.3,    0.4,    0.3,    0.3,    0.3,    0.0,    0.2,   -0.0,   -0.0,  999.0,    0.0,   -0.2,  999.0,  999.0,    0.1,  999.0,    0.1,    0.1,    0.0,   -0.1,    0.0,   -0.0,   -0.2,  999.0,  999.0,  999.0,  999.0,   -0.1,    0.0,    0.0,    0.1,    0.1,    0.0,  999.0,  999.0,   -0.0,  999.0,  999.0
2007/08/04 16:50,  999.0,   -0.0,   -0.0,   -0.1,   -0.1,   -0.1,    0.0,    0.1,    0.2,    0.1,    0.1,    0.1,    0.1,   -0.0,    0.1,    0.0,    0.0,    0.1,    0.1,    0.2,    0.1,    0.1,    0.0,    0.0,    0.0,    0.0,    0.2,    0.6,    0.1,    0.2,    0.1,    0.2,    0.1,    0.0,   -0.0,   -0.0,    0.1,    0.1,    0.2,  999.0,    0.2,    0.3,    0.2,    0.2,    0.1,    0.1,    0.2,   -0.1,   -0.1,   -0.1,   -0.2,  999.0,    0.2,  999.0,  999.0,  999.0,  999.0,  999.0,  999.0,  999.0,    0.1,    0.1,  999.0,  999.0,    0.1,  999.0,  999.0,  999.0,  999.0,  999.0,    0.2,    0.2,    0.1,    0.1,    0.1,   -0.0,  999.0,  999.0,  999.0,  999.0
2007/08/04 17:00,    0.0,    0.0,   -0.0,   -0.0,   -0.1,   -0.0,    0.1,   -0.1,   -0.1,   -0.1,    0.0,   -0.0,   -0.0,    0.0,    0.1,    0.0,    0.0,   -0.0,    0.0,    0.0,    0.1,    0.1,    0.0,    0.0,    0.0,    0.0,    0.0,   -0.0,   -0.0,   -0.0,   -0.0,   -0.1,   -0.2,   -0.2,   -0.1,   -0.2,    0.0,   -0.2,   -0.0,    0.0,   -0.4,   -0.0,   -0.1,   -0.1,   -0.0,    0.0,    0.1,    0.1,    0.2,    0.2,    0.2,    0.3,    0.2,  999.0,  999.0,  999.0,  999.0,    0.2,  999.0,  999.0,    0.0,    0.0,    0.2,  999.0,    0.0,    0.0,   -0.1,  999.0,  999.0,  999.0,  999.0,  999.0,  999.0,    0.2,    0.3,    0.3,  999.0,  999.0,  999.0,  999.0
2007/08/04 17:10,  999.0,    0.0,   -0.1,   -0.2,   -0.3,   -0.4,   -0.1,   -0.2,   -0.0,    0.0,   -0.0,    0.1,    0.1,    0.1,    0.1,    0.2,    0.2,    0.1,    0.1,    0.1,    0.2,  999.0,    0.0,    0.0,  999.0,    0.0,    0.0,    0.0,    0.0,   -0.0,   -0.0,   -0.0,   -0.1,   -0.1,   -0.0,    0.0,    0.1,    0.1,    0.2,    0.3,    0.3,    0.2,    0.1,    0.1,    0.1,    0.1,    0.1,    0.1,    0.2,    0.2,    0.0,    0.1,   -0.0,   -0.2,  999.0,  999.0,  999.0,    0.1,  999.0,  999.0,    0.2,    0.2,  999.0,    0.0,    0.0,  999.0,   -0.0,  999.0,  999.0,  999.0,  999.0,  999.0,   -0.2,   -0.2,   -0.1,   -0.1,   -0.0,  999.0,  999.0,  999.0
2007/08/04 17:20,    0.0,    0.0,   -0.0,   -0.2,    0.1,   -0.1,    0.1,    0.1,    0.1,    0.2,    0.2,    0.2,    0.1,    0.1,    0.1,    0.1,    0.1,    0.1,    0.0,    0.1,    0.1,    0.1,    0.0,   -0.0,    0.0,   -0.0,   -0.1,   -0.1,   -0.1,   -0.1,   -0.0,   -0.0,   -0.0,   -0.1,   -0.2,   -0.1,   -0.1,    0.1,    0.0,    0.0,    0.1,    0.1,   -0.0,   -0.1,   -0.0,    0.0,    0.1,    0.0,   -0.0,   -0.1,   -0.1,    0.0,   -0.1,   -0.0,  999.0,  999.0,  999.0,   -0.1,  999.0,  999.0,   -0.1,  999.0,   -0.1,   -0.2,   -0.2,   -0.3,  999.0,  999.0,  999.0,  999.0,  999.0,   -0.2,   -0.1,   -0.0,    0.1,   -0.0,   -0.1,   -0.3,   -0.2,  999.0
2007/08/04 17:30,    0.0,    0.1,   -0.0,    0.1,    0.3,    0.1,    0.1,    0.1,    0.1,    0.2,    0.2,    0.1,    0.2,    0.2,    0.2,    0.2,    0.2,    0.1,    0.1,    0.1,    0.1,    0.2,    0.0,    0.0,    0.0,    0.1,   -0.0,   -0.1,   -0.1,   -0.1,   -0.1,   -0.1,   -0.1,   -0.3,   -0.4,    0.0,    0.1,    0.4,    0.2,    0.3,    0.3,    0.2,    0.1,    0.2,    0.1,   -0.2,   -0.2,   -0.4,   -0.4,   -0.5,   -0.4,   -0.4,   -0.2,  999.0,  999.0,  999.0,  999.0,  999.0,   -0.1,  999.0,  999.0,  999.0,    0.1,   -0.0,    0.0,    0.0,  999.0,  999.0,  999.0,  999.0,  999.0,    0.1,    0.1,  999.0,    0.1,    0.0,   -0.0,    0.1,    0.0,    0.2
2007/08/04 17:40,   -0.0,   -0.0,    0.1,   -0.0,    0.0,    0.1,    0.1,    0.1,    0.1,    0.0,    0.1,    0.2,    0.1,    0.1,    0.2,    0.2,    0.1,    0.1,    0.1,    0.1,    0.1,    0.0,    0.0,   -0.0,   -0.0,   -0.0,   -0.1,   -0.2,   -0.2,   -0.1,   -0.1,   -0.1,   -0.1,   -0.1,   -0.0,    0.1,  999.0,    0.4,    0.5,    0.4,    0.3,    0.5,    0.3,    0.5,    0.4,    0.6,    0.2,   -0.0,   -0.0,   -0.1,   -0.1,   -0.1,   -0.1,    0.1,    0.0,   -0.1,  999.0,    0.0,  999.0,   -0.0,  999.0,  999.0,   -0.1,    0.0,    0.2,    0.1,   -0.0,    0.0,   -0.1,   -0.1,   -0.1,   -0.2,   -0.1,   -0.1,   -0.1,   -0.1,   -0.1,   -0.1,   -0.0,    0.0
2007/08/04 17:50,    0.0,    0.0,   -0.0,   -0.0,   -0.1,   -0.1,   -0.2,   -0.3,   -0.2,   -0.3,   -0.1,   -0.0,   -0.1,   -0.0,   -0.0,    0.0,    0.1,    0.2,    0.2,    0.1,    0.1,    0.3,    0.0,    0.0,    0.0,    0.0,    0.0,    0.0,    0.0,    0.0,    0.0,    0.0,   -0.0,   -0.1,   -0.1,   -0.0,    0.0,    0.2,  999.0,    0.4,    0.4,    0.2,  999.0,  999.0,    0.3,    0.4,    0.1,   -0.0,   -0.2,    0.0,   -0.1,   -0.0,   -0.1,   -0.3,   -0.3,   -0.2,   -0.1,    0.2,    0.1,    0.1,   -0.2,   -0.3,   -0.3,   -0.4,   -0.3,   -0.2,   -0.2,   -0.1,   -0.0,   -0.1,   -0.0,    0.0,   -0.1,   -0.1,   -0.0,    0.0,    0.2,    0.1,  999.0,  999.0
2007/08/04 18:00,    0.0,    0.0,    0.0,    0.0,    0.0,   -0.0,   -0.1,   -0.1,   -0.2,   -0.2,   -0.1,   -0.1,    0.0,   -0.0,   -0.0,   -0.0,   -0.0,   -0.0,   -0.0,    0.0,    0.0,    0.0,    0.0,    0.0,    0.0,   -0.0,   -0.0,   -0.0,   -0.1,   -0.1,   -0.3,   -0.0,   -0.0,   -0.1,   -0.2,   -0.1,   -0.1,   -0.0,    0.1,   -0.0,   -0.1,    0.1,   -0.1,   -0.1,   -0.2,   -0.2,   -0.2,   -0.2,   -0.1,   -0.0,   -0.0,  999.0,   -0.0,    0.1,   -0.1,    0.0,    0.1,    0.1,    0.1,    0.1,    0.1,    0.1,    0.0,   -0.1,   -0.0,   -0.1,   -0.1,   -0.2,   -0.0,    0.0,    0.1,    0.1,    0.1,   -0.0,    0.2,    0.2,    0.2,    0.3,    0.3,  999.0
2007/08/04 18:10,    0.0,   -0.0,   -0.0,   -0.0,    0.0,    0.0,    0.1,    0.0,   -0.0,   -0.0,   -0.0,    0.0,   -0.0,   -0.1,   -0.1,   -0.1,   -0.1,   -0.1,   -0.1,   -0.1,   -0.0,   -0.0,    0.0,    0.0,    0.0,   -0.0,   -0.0,    0.0,   -0.0,   -0.0,   -0.1,   -0.1,   -0.2,   -0.2,   -0.2,   -0.1,   -0.0,  999.0,  999.0,    0.3,    0.3,    0.2,    0.3,    0.2,    0.1,    0.1,    0.2,    0.2,    0.2,    0.1,  999.0,  999.0,  999.0,  999.0,    0.1,    0.2,    0.1,    0.1,    0.0,    0.0,   -0.0,    0.1,   -0.1,   -0.2,   -0.3,   -0.3,   -0.4,   -0.4,   -0.3,   -0.1,    0.0,    0.0,    0.1,    0.2,    0.1,    0.2,    0.0,   -0.0,   -0.1,   -0.0
2007/08/04 18:20,   -0.0,   -0.0,    0.0,    0.0,   -0.0,    0.0,    0.0,   -0.0,    0.0,    0.1,    0.1,    0.2,    0.2,    0.3,    0.3,    0.3,    0.3,    0.3,    0.2,    0.2,    0.4,    0.3,    0.1,    0.1,    0.0,    0.2,    0.1,    0.1,    0.1,    0.0,   -0.1,    0.0,   -0.0,    0.0,    0.0,    0.1,  999.0,    0.0,   -0.0,    0.1,    0.1,    0.2,    0.2,  999.0,    0.1,    0.1,    0.2,    0.0,    0.0,   -0.0,  999.0,  999.0,  999.0,  999.0,   -0.2,   -0.2,   -0.3,   -0.3,   -0.2,   -0.1,   -0.1,   -0.1,   -0.2,   -0.2,   -0.2,   -0.2,   -0.2,   -0.1,   -0.0,   -0.0,    0.0,    0.2,    0.3,    0.4,    0.4,    0.2,    0.2,    0.2,    0.2,    0.1
2007/08/04 18:30,  999.0,   -0.0,   -0.0,    0.0,    0.0,    0.1,    0.2,    0.0,    0.1,    0.2,    0.1,    0.1,    0.1,    0.2,    0.2,    0.1,    0.1,    0.2,    0.1,    0.1,    0.2,    0.2,    0.2,    0.1,    0.0,    0.0,   -0.0,   -0.1,   -0.1,   -0.1,   -0.1,   -0.1,   -0.1,    0.0,    0.0,    0.1,    0.1,   -0.1,   -0.0,   -0.1,   -0.1,   -0.1,   -0.0,   -0.0,   -0.0,    0.0,    0.1,    0.0,   -0.0,    0.0,  999.0,  999.0,  999.0,  999.0,    0.2,    0.2,    0.1,    0.1,    0.1,    0.1,    0.1,    0.1,    0.1,    0.0,  999.0,    0.2,    0.2,    0.2,    0.2,    0.1,    0.1,    0.1,    0.0,    0.1,    0.1,    0.0,    0.0,   -0.0,    0.0,   -0.1
2007/08/04 18:40,  999.0,    0.0,    0.0,   -0.0,    0.0,    0.0,    0.1,    0.0,   -0.0,   -0.1,   -0.0,    0.0,    0.0,    0.1,    0.1,    0.1,    0.2,    0.2,    0.0,    0.1,    0.1,    0.2,    0.2,    0.1,    0.0,    0.1,    0.1,    0.0,    0.0,   -0.1,   -0.0,   -0.1,   -0.1,   -0.1,   -0.0,    0.0,    0.0,    0.2,    0.2,    0.2,  999.0,    0.1,    0.1,   -0.0,   -0.1,   -0.1,   -0.0,   -0.0,    0.1,    0.2,  999.0,  999.0,  999.0,  999.0,    0.0,    0.1,   -0.2,  999.0,  999.0,   -0.1,    0.0,    0.2,    0.3,   -0.1,  999.0,  999.0,  999.0,  999.0,  999.0,    0.1,    0.0,    0.1,    0.2,    0.3,    0.3,  999.0,    0.2,    0.3,    0.3,    0.4
2007/08/04 18:50,  999.0,   -0.0,   -0.0,   -0.0,   -0.1,   -0.1,   -0.2,   -0.2,   -0.2,   -0.3,   -0.3,   -0.3,   -0.1,   -0.1,   -0.2,   -0.1,   -0.1,    0.0,   -0.0,    0.0,   -0.0,    0.0,    0.1,    0.0,   -0.0,    0.0,    0.0,    0.1,    0.1,    0.0,   -0.0,    0.0,    0.0,    0.0,    0.1,    0.1,    0.2,    0.3,    0.4,    0.3,    0.2,    0.2,    0.2,    0.1,    0.2,    0.2,    0.2,    0.1,    0.1,    0.1,    0.1,  999.0,   -0.1,    0.3,    0.2,    0.2,    0.3,   -0.1,   -0.1,   -0.2,   -0.2,   -0.2,   -0.1,   -0.2,   -0.3,   -0.1,  999.0,  999.0,    0.0,    0.0,    0.0,    0.1,    0.2,    0.4,    0.2,    0.2,  999.0,  999.0,    0.1,    0.1
2007/08/04 19:00,  999.0,   -0.0,   -0.0,   -0.1,   -0.2,   -0.2,   -0.3,   -0.4,   -0.5,   -0.5,   -0.4,   -0.2,   -0.1,   -0.1,   -0.0,    0.0,    0.1,    0.1,    0.2,    0.2,    0.2,    0.2,    0.2,    0.0,   -0.0,    0.0,    0.1,    0.1,    0.1,    0.0,    0.0,   -0.0,   -0.0,   -0.1,   -0.1,   -0.1,   -0.0,    0.1,    0.0,    0.2,    0.3,    0.1,    0.4,    0.3,    0.3,    0.3,    0.2,    0.4,   -0.0,   -0.0,   -0.0,  999.0,  999.0,  999.0,    0.1,   -0.1,    0.0,   -0.1,   -0.2,   -0.1,   -0.0,   -0.1,   -0.2,   -0.2,   -0.2,   -0.2,   -0.1,   -0.0,   -0.0,    0.0,    0.0,    0.0,    0.1,    0.0,   -0.0,    0.0,  999.0,  999.0,    0.0,   -0.0
2007/08/04 19:10,   -0.0,   -0.0,   -0.0,   -0.1,   -0.1,   -0.2,   -0.3,   -0.4,   -0.5,   -0.3,   -0.3,   -0.2,   -0.2,   -0.1,   -0.1,   -0.1,   -0.0,    0.0,    0.0,    0.2,    0.2,    0.2,    0.1,    0.1,    0.0,    0.0,    0.0,    0.0,   -0.0,   -0.0,   -0.1,   -0.1,   -0.1,   -0.2,   -0.2,  999.0,   -0.1,   -0.1,   -0.1,   -0.2,   -0.1,    0.1,    0.1,   -0.0,   -0.1,   -0.0,   -0.3,   -0.5,   -0.6,   -0.5,   -0.5,   -0.2,   -0.2,   -0.3,    0.1,    0.0,    0.0,    0.0,   -0.0,   -0.2,    0.1,    0.1,    0.0,   -0.0,   -0.1,   -0.1,   -0.1,   -0.1,   -0.2,   -0.1,   -0.1,   -0.0,    0.1,    0.1,    0.2,    0.1,    0.3,    0.1,    0.1,    0.0
2007/08/04 19:20,   -0.0,    0.0,   -0.0,   -0.1,   -0.1,   -0.2,   -0.2,   -0.3,   -0.2,   -0.1,   -0.1,   -0.0,    0.1,    0.1,    0.1,    0.3,    0.3,    0.4,    0.5,    0.4,    0.5,    0.4,    0.2,    0.2,    0.0,    0.0,    0.1,   -0.0,   -0.0,    0.0,   -0.0,   -0.0,   -0.0,   -0.0,   -0.0,   -0.0,    0.1,    0.2,    0.3,    0.3,    0.4,    0.4,    0.4,    0.2,    0.2,    0.0,   -0.0,   -0.1,   -0.3,   -0.3,   -0.3,   -0.1,   -0.1,  999.0,   -0.0,    0.1,    0.2,    0.2,    0.2,    0.1,    0.1,    0.0,    0.1,    0.1,    0.1,    0.0,   -0.0,    0.0,   -0.0,   -0.0,    0.0,    0.0,    0.2,    0.3,  999.0,  999.0,    0.2,    0.2,   -0.2,   -0.0
2007/08/04 19:30,  999.0,    0.0,    0.0,   -0.0,   -0.1,   -0.1,   -0.1,   -0.0,    0.1,    0.2,    0.2,    0.2,    0.2,    0.4,    0.6,    0.6,    0.6,    0.6,    0.6,    0.7,    0.7,    0.6,    0.2,    0.2,    0.1,    0.1,    0.0,   -0.0,   -0.1,   -0.1,   -0.2,   -0.2,   -0.3,   -0.3,   -0.2,   -0.1,   -0.0,    0.0,    0.0,    0.1,    0.0,    0.1,    0.0,   -0.0,   -0.0,   -0.1,   -0.2,   -0.4,   -0.3,   -0.3,   -0.4,   -0.3,   -0.2,   -0.2,   -0.2,   -0.1,    0.1,    0.0,    0.0,    0.1,    0.1,   -0.0,    0.0,    0.1,   -0.0,   -0.1,   -0.1,   -0.0,    0.0,    0.0,    0.1,    0.1,    0.2,    0.1,    0.2,  999.0,  999.0,  999.0,  999.0,    0.4
2007/08/04 19:40,   -0.0,   -0.0,   -0.0,   -0.2,   -0.2,   -0.2,   -0.2,   -0.2,   -0.2,   -0.1,   -0.0,    0.1,    0.2,    0.1,    0.2,    0.2,    0.3,    0.3,    0.3,    0.3,    0.4,    0.4,    0.2,    0.1,    0.0,   -0.0,   -0.0,   -0.1,   -0.1,    0.0,    0.1,    0.0,    0.1,    0.1,    0.2,    0.2,    0.3,    0.3,    0.2,    0.3,    0.3,    0.2,    0.3,    0.3,    0.3,    0.3,    0.4,    0.4,    0.2,    0.2,    0.1,    0.1,   -0.1,   -0.3,   -0.2,   -0.2,  999.0,   -0.2,   -0.3,   -0.2,   -0.1,   -0.2,   -0.1,   -0.0,   -0.1,   -0.1,   -0.1,   -0.1,   -0.2,   -0.2,   -0.2,   -0.1,   -0.3,   -0.2,   -0.1,   -0.2,   -0.2,  999.0,  999.0,  999.0
2007/08/04 19:50,   -0.0,    0.0,   -0.0,   -0.1,   -0.2,   -0.2,   -0.2,   -0.2,   -0.1,   -0.2,    0.0,    0.2,    0.2,    0.2,    0.2,    0.2,    0.3,    0.3,    0.3,    0.3,    0.3,    0.2,    0.2,    0.1,    0.1,    0.0,   -0.1,   -0.1,   -0.0,   -0.1,   -0.2,   -0.2,   -0.1,   -0.1,   -0.0,    0.0,    0.1,    0.0,    0.1,   -0.0,   -0.1,   -0.1,    0.0,    0.0,    0.1,    0.0,    0.0,    0.0,    0.0,    0.1,    0.0,    0.1,    0.0,    0.0,    0.1,    0.1,    0.2,    0.2,    0.2,    0.1,    0.1,    0.1,    0.1,    0.1,   -0.1,   -0.0,   -0.1,   -0.1,   -0.0,   -0.0,    0.0,    0.2,    0.2,    0.2,    0.2,    0.1,    0.1,   -0.3,  999.0,  999.0
2007/08/04 20:00,    0.0,    0.0,   -0.0,   -0.0,   -0.3,   -0.3,   -0.3,   -0.3,   -0.1,   -0.2,   -0.1,    0.0,   -0.0,   -0.0,    0.2,    0.3,    0.2,    0.3,    0.3,    0.2,    0.1,    0.1,   -0.0,   -0.0,   -0.0,    0.0,   -0.1,   -0.0,    0.0,   -0.0,    0.0,    0.1,    0.2,    0.2,    0.3,    0.5,    0.4,    0.4,    0.4,    0.2,    0.2,    0.3,    0.1,    0.1,    0.1,   -0.1,   -0.1,   -0.1,   -0.1,   -0.2,   -0.0,   -0.0,   -0.0,    0.1,    0.0,    0.2,    0.2,    0.2,    0.2,    0.1,    0.2,    0.2,    0.1,    0.1,    0.2,    0.1,    0.0,    0.1,    0.2,  999.0,    0.2,    0.3,    0.4,    0.3,  999.0,  999.0,  999.0,   -0.1,   -0.1,  999.0
2007/08/04 20:10,  999.0,    0.0,   -0.0,   -0.0,   -0.2,   -0.6,   -0.6,   -0.4,   -0.7,   -0.3,   -0.3,   -0.3,   -0.2,   -0.1,   -0.0,   -0.1,  999.0,    0.1,    0.1,   -0.1,   -0.1,   -0.1,   -0.2,   -0.0,    0.0,   -0.0,   -0.1,   -0.1,   -0.1,   -0.0,   -0.1,   -0.1,    0.0,   -0.0,    0.1,    0.2,    0.4,    0.2,    0.2,    0.2,    0.0,    0.0,   -0.0,   -0.1,   -0.2,   -0.1,   -0.1,   -0.1,   -0.1,   -0.0,   -0.1,   -0.0,   -0.1,   -0.1,    0.0,   -0.0,    0.1,    0.1,    0.1,    0.0,    0.1,    0.1,    0.0,   -0.1,   -0.2,   -0.2,   -0.2,   -0.2,   -0.2,   -0.0,    0.1,    0.1,    0.1,    0.2,  999.0,    0.2,  999.0,  999.0,    0.4,  999.0
2007/08/04 20:20,  999.0,   -0.0,   -0.0,   -0.1,   -0.2,   -0.4,   -0.3,   -0.4,   -0.4,   -0.3,   -0.2,   -0.2,   -0.1,   -0.1,   -0.1,   -0.1,    0.0,    0.0,   -0.1,   -0.0,   -0.0,    0.0,    0.0,   -0.0,   -0.0,   -0.0,   -0.1,   -0.1,   -0.0,   -0.0,    0.1,    0.1,    0.2,    0.2,    0.3,    0.4,    0.5,    0.5,    0.4,    0.2,    0.3,    0.1,    0.0,   -0.1,   -0.0,    0.0,    0.0,    0.0,    0.0,    0.0,    0.1,    0.1,    0.1,    0.0,    0.1,    0.1,   -0.0,   -0.0,   -0.2,    0.0,   -0.2,   -0.3,   -0.3,   -0.3,   -0.2,   -0.2,   -0.2,   -0.6,   -0.7,   -0.6,   -0.4,    0.0,  999.0,  999.0,  999.0,  999.0,  999.0,  999.0,  999.0,  999.0
2007/08/04 20:30,  999.0,   -0.0,   -0.0,   -0.0,   -0.1,   -0.2,   -0.2,   -0.1,   -0.1,   -0.0,    0.0,    0.1,    0.1,    0.2,    0.1,    0.2,    0.2,    0.2,    0.1,    0.1,   -0.0,   -0.0,   -0.2,   -0.4,   -0.1,   -0.2,   -0.1,    0.1,    0.0,    0.1,    0.1,    0.2,    0.3,    0.3,    0.4,    0.4,    0.4,    0.4,    0.3,    0.2,    0.1,    0.1,   -0.0,    0.0,    0.0,    0.1,    0.0,    0.1,    0.1,    0.1,    0.0,    0.1,    0.1,    0.1,    0.2,    0.2,    0.3,    0.3,    0.1,    0.2,    0.1,   -0.1,   -0.1,   -0.1,   -0.1,   -0.1,   -0.0,    0.1,   -0.0,   -0.0,    0.2,  999.0,  999.0,    0.1,  999.0,   -0.2,  999.0,  999.0,    0.0,  999.0
2007/08/04 20:40,  999.0,   -0.0,    0.0,    0.1,   -0.0,    0.0,    0.1,    0.1,    0.2,    0.2,    0.2,    0.2,    0.3,    0.3,    0.3,    0.2,    0.2,    0.3,    0.3,    0.2,    0.2,    0.1,   -0.1,   -0.3,   -0.2,   -0.3,   -0.1,   -0.0,   -0.0,   -0.0,    0.0,    0.0,    0.1,    0.1,    0.1,    0.1,    0.2,    0.2,    0.2,   -0.0,    0.0,   -0.0,   -0.0,   -0.1,    0.1,   -0.1,   -0.0,   -0.1,   -0.1,   -0.0,   -0.0,    0.0,    0.1,   -0.2,    0.1,    0.2,    0.2,    0.3,    0.3,    0.2,    0.2,    0.1,    0.2,    0.1,    0.1,    0.0,    0.0,    0.1,    0.2,    0.3,    0.4,    0.4,  999.0,  999.0,  999.0,  999.0,  999.0,    0.1,    0.3,    0.1
2007/08/04 20:50,  999.0,   -0.0,   -0.0,    0.0,   -0.0,    0.1,    0.1,    0.3,    0.3,    0.4,    0.4,    0.4,    0.5,    0.6,    0.5,    0.6,    0.6,    0.5,    0.4,    0.3,    0.2,    0.1,   -0.0,   -0.2,   -0.2,   -0.1,   -0.1,   -0.1,   -0.0,   -0.1,   -0.1,   -0.1,   -0.1,   -0.0,    0.0,    0.0,    0.1,    0.0,    0.0,   -0.0,   -0.1,   -0.1,   -0.2,   -0.3,   -0.5,   -0.6,   -0.5,   -0.4,   -0.2,   -0.2,   -0.1,   -0.2,   -0.1,   -0.1,   -0.1,   -0.1,   -0.1,   -0.0,   -0.1,   -0.1,   -0.2,   -0.2,   -0.2,   -0.2,    0.0,   -0.1,   -0.1,   -0.1,   -0.0,    0.1,    0.2,    0.2,  999.0,  999.0,  999.0,  999.0,  999.0,  999.0,   -0.0,   -0.1
2007/08/04 21:00,    0.0,   -0.0,   -0.1,   -0.1,   -0.0,    0.1,    0.0,    0.1,    0.1,    0.1,    0.1,    0.1,    0.1,    0.1,    0.0,   -0.1,   -0.0,   -0.1,   -0.0,   -0.1,   -0.2,   -0.3,   -0.3,   -0.3,   -0.1,   -0.2,   -0.3,   -0.2,   -0.1,   -0.2,   -0.1,   -0.0,    0.0,    0.0,    0.1,    0.2,    0.2,    0.3,    0.3,    0.3,    0.2,    0.2,    0.1,    0.0,    0.0,    0.0,    0.1,    0.3,    0.3,    0.4,    0.3,    0.1,    0.1,    0.0,   -0.1,   -0.0,    0.0,    0.0,   -0.2,   -0.0,   -0.0,   -0.1,   -0.1,   -0.3,   -0.2,   -0.2,   -0.3,   -0.3,   -0.3,   -0.3,   -0.1,   -0.2,   -0.2,  999.0,  999.0,  999.0,   -0.0,  999.0,  999.0,  999.0
2007/08/04 21:10,   -0.0,    0.0,    0.0,    0.2,    0.1,    0.2,    0.2,    0.2,    0.2,    0.2,    0.1,    0.1,    0.1,    0.1,    0.0,    0.0,   -0.1,   -0.0,   -0.0,   -0.1,   -0.2,   -0.2,   -0.4,   -0.3,   -0.3,   -0.3,   -0.5,   -0.3,   -0.1,    0.1,    0.2,    0.2,    0.3,    0.4,    0.2,    0.3,    0.3,    0.3,    0.1,    0.1,   -0.0,   -0.0,   -0.1,   -0.1,   -0.1,    0.1,   -0.0,    0.0,    0.2,    0.1,    0.2,    0.2,    0.2,    0.2,    0.3,    0.4,    0.4,    0.4,    0.2,    0.2,    0.4,    0.2,    0.1,    0.3,    0.2,    0.1,    0.0,    0.1,    0.0,    0.1,    0.1,    0.0,    0.2,  999.0,  999.0,  999.0,  999.0,  999.0,  999.0,   -0.0
2007/08/04 21:20,    0.0,   -0.0,    0.1,    0.1,    0.1,    0.3,    0.3,    0.4,    0.3,    0.3,    0.2,    0.3,    0.1,    0.2,    0.2,    0.2,    0.1,   -0.1,    0.0,   -0.0,   -0.0,   -0.0,   -0.2,   -0.2,   -0.2,   -0.3,   -0.2,   -0.0,    0.1,    0.1,    0.1,    0.2,    0.2,    0.4,    0.4,    0.4,    0.3,    0.1,    0.1,    0.0,   -0.1,    0.1,    0.0,    0.1,    0.1,   -0.0,   -0.1,   -0.2,   -0.2,   -0.2,   -0.1,   -0.1,   -0.0,   -0.0,    0.0,   -0.0,    0.1,    0.1,    0.1,    0.1,   -0.0,   -0.0,    0.1,  999.0,  999.0,    0.0,   -0.1,   -0.1,    0.0,    0.0,   -0.2,   -0.3,   -0.1,   -0.0,  999.0,  999.0,  999.0,    0.1,    0.1,  999.0
2007/08/04 21:30,    0.0,    0.0,    0.1,    0.1,    0.1,    0.2,    0.3,    0.3,    0.2,    0.1,    0.1,    0.1,    0.1,    0.2,    0.1,    0.0,    0.0,   -0.0,    0.0,    0.0,   -0.0,   -0.1,   -0.1,   -0.3,   -0.2,   -0.3,   -0.2,   -0.3,   -0.1,   -0.1,    0.0,    0.2,    0.2,    0.2,    0.3,    0.2,    0.1,    0.1,    0.0,   -0.0,   -0.1,   -0.0,   -0.1,   -0.2,   -0.1,   -0.2,   -0.3,   -0.2,    0.0,    0.0,    0.1,   -0.0,   -0.0,    0.1,    0.2,    0.3,    0.2,    0.2,    0.3,    0.3,    0.2,    0.5,    0.3,  999.0,  999.0,  999.0,    0.1,    0.1,    0.1,   -0.1,   -0.3,   -0.5,   -0.5,   -0.2,   -0.1,   -0.0,  999.0,  999.0,  999.0,   -0.4
2007/08/04 21:40,    0.0,   -0.0,   -0.1,   -0.2,   -0.2,   -0.1,   -0.2,   -0.2,   -0.2,   -0.1,    0.0,   -0.0,   -0.1,   -0.0,   -0.0,   -0.1,   -0.1,   -0.1,   -0.1,   -0.1,   -0.0,   -0.0,    0.1,    0.0,   -0.0,   -0.1,   -0.1,   -0.1,   -0.2,   -0.1,   -0.0,    0.1,    0.1,    0.2,    0.2,    0.3,    0.3,    0.2,    0.1,    0.0,   -0.1,   -0.2,   -0.2,   -0.2,   -0.3,   -0.4,   -0.2,   -0.1,   -0.0,    0.0,    0.0,   -0.0,   -0.1,   -0.1,   -0.1,   -0.1,  999.0,    0.1,    0.2,    0.3,    0.1,  999.0,    0.3,    0.2,  999.0,  999.0,    0.2,    0.3,  999.0,    0.1,    0.1,    0.1,   -0.1,   -0.1,    0.2,  999.0,  999.0,   -0.4,   -0.2,   -0.5
2007/08/04 21:50,    0.0,   -0.0,   -0.1,   -0.2,   -0.1,   -0.0,    0.0,    0.1,    0.1,    0.1,    0.2,    0.1,    0.1,    0.1,   -0.1,   -0.0,   -0.1,   -0.1,   -0.1,   -0.1,   -0.2,   -0.2,   -0.2,   -0.1,   -0.1,   -0.1,   -0.2,   -0.1,   -0.1,   -0.1,   -0.0,   -0.1,    0.0,    0.1,    0.1,    0.2,    0.3,    0.4,    0.2,    0.2,    0.2,    0.1,    0.1,   -0.1,   -0.1,   -0.1,   -0.2,    0.1,    0.3,    0.2,    0.2,    0.0,   -0.0,   -0.1,   -0.1,   -0.2,   -0.1,   -0.0,   -0.0,    0.1,    0.1,    0.1,  999.0,    0.1,  999.0,  999.0,  999.0,  999.0,  999.0,  999.0,    0.0,    0.0,    0.2,  999.0,   -0.1,   -0.2,    0.1,  999.0,  999.0,   -0.1
2007/08/04 22:00,   -0.0,   -0.0,   -0.1,   -0.0,    0.1,    0.2,    0.2,    0.2,    0.3,    0.4,    0.4,    0.4,    0.3,    0.3,    0.2,    0.1,    0.2,    0.1,    0.0,   -0.0,   -0.1,   -0.2,   -0.2,   -0.1,   -0.0,   -0.1,   -0.2,   -0.2,   -0.1,   -0.1,   -0.1,   -0.0,   -0.0,   -0.1,    0.0,    0.0,    0.0,   -0.0,   -0.0,   -0.1,   -0.1,   -0.1,   -0.1,   -0.1,   -0.2,   -0.2,   -0.1,   -0.1,   -0.1,   -0.0,    0.0,   -0.0,    0.0,    0.1,    0.2,    0.1,    0.1,    0.1,    0.1,    0.1,    0.2,  999.0,    0.1,  999.0,  999.0,  999.0,  999.0,  999.0,  999.0,  999.0,    0.0,    0.2,    0.4,    0.2,  999.0,  999.0,  999.0,  999.0,  999.0,  999.0
2007/08/04 22:10,   -0.0,    0.0,   -0.1,   -0.0,   -0.0,    0.0,    0.1,   -0.0,   -0.0,    0.1,    0.0,    0.1,    0.1,    0.1,    0.2,    0.1,    0.2,   -0.0,   -0.1,   -0.0,   -0.0,   -0.1,   -0.1,   -0.1,  999.0,   -0.0,   -0.1,   -0.1,   -0.0,   -0.1,   -0.1,   -0.1,   -0.1,   -0.1,   -0.0,   -0.1,   -0.1,    0.0,   -0.0,    0.0,   -0.0,   -0.0,   -0.1,    0.0,    0.1,    0.1,    0.1,    0.1,    0.2,    0.2,    0.2,    0.0,    0.1,    0.1,    0.1,    0.2,    0.0,    0.1,   -0.1,   -0.1,  999.0,  999.0,  999.0,  999.0,  999.0,  999.0,  999.0,  999.0,  999.0,  999.0,  999.0,    0.0,   -0.0,  999.0,  999.0,  999.0,  999.0,    0.0,   -0.0,  999.0
2007/08/04 22:20,    0.0,   -0.0,    0.0,    0.1,    0.1,    0.0,   -0.0,   -0.0,   -0.0,    0.2,    0.2,    0.1,    0.1,    0.1,    0.1,    0.0,    0.1,    0.1,    0.1,    0.1,    0.1,    0.1,    0.1,    0.1,  999.0,   -0.0,   -0.1,   -0.1,   -0.1,   -0.1,   -0.1,   -0.1,   -0.0,   -0.1,   -0.0,   -0.3,   -0.2,   -0.1,   -0.0,    0.1,    0.1,    0.1,    0.1,    0.0,    0.1,    0.1,    0.1,    0.1,    0.1,    0.2,    0.2,    0.2,    0.2,    0.1,    0.2,    0.3,  999.0,  999.0,    0.1,    0.2,    0.2,    0.2,  999.0,  999.0,  999.0,  999.0,  999.0,  999.0,  999.0,  999.0,  999.0,   -0.1,   -0.1,   -0.1,    0.0,    0.1,  999.0,    0.1,    0.1,    0.1
2007/08/04 22:30,   -0.1,   -0.0,   -0.0,   -0.0,   -0.0,   -0.0,   -0.1,   -0.0,    0.1,    0.1,    0.1,    0.2,    0.1,    0.1,    0.1,    0.1,    0.1,    0.1,    0.1,    0.0,   -0.0,   -0.1,   -0.1,   -0.0,    0.0,   -0.0,   -0.0,    0.0,    0.1,   -0.0,    0.0,   -0.0,    0.0,    0.0,    0.0,    0.0,   -0.1,   -0.1,   -0.0,    0.0,    0.1,    0.0,   -0.0,   -0.0,   -0.1,   -0.0,   -0.1,   -0.1,   -0.1,   -0.1,   -0.1,   -0.1,  999.0,   -0.1,   -0.1,   -0.1,  999.0,  999.0,  999.0,    0.2,    0.4,    0.3,  999.0,  999.0,  999.0,  999.0,  999.0,  999.0,  999.0,  999.0,    0.1,  999.0,    0.1,    0.0,   -0.1,   -0.0,    0.1,    0.2,    0.0,  999.0
2007/08/04 22:40,    0.0,   -0.1,   -0.0,   -0.1,   -0.2,   -0.2,   -0.2,   -0.1,   -0.0,    0.0,    0.0,    0.1,    0.2,    0.2,    0.3,    0.3,    0.3,    0.1,    0.1,    0.2,    0.0,    0.1,   -0.0,   -0.1,   -0.1,   -0.1,   -0.2,   -0.1,   -0.0,   -0.0,    0.0,    0.0,    0.0,    0.0,    0.1,    0.1,    0.1,    0.2,    0.1,    0.2,    0.2,    0.1,    0.0,   -0.0,    0.1,    0.0,    0.0,   -0.0,   -0.1,   -0.0,    0.0,   -0.1,   -0.0,  999.0,    0.1,  999.0,  999.0,  999.0,  999.0,    0.2,    0.5,    0.6,  999.0,  999.0,  999.0,  999.0,  999.0,  999.0,  999.0,  999.0,  999.0,    0.2,    0.1,    0.1,   -0.0,    0.2,   -0.1,   -0.1,   -0.1,  999.0
2007/08/04 22:50,   -0.0,   -0.0,   -0.0,   -0.1,   -0.3,   -0.1,    0.1,    0.0,    0.1,    0.2,    0.2,    0.3,    0.4,    0.3,    0.4,    0.4,    0.4,    0.2,    0.2,    0.1,    0.1,    0.1,   -0.0,   -0.0,   -0.0,   -0.1,   -0.1,   -0.1,   -0.0,   -0.0,   -0.0,   -0.0,    0.0,    0.1,    0.1,    0.3,    0.2,    0.2,    0.2,    0.2,   -0.0,   -0.1,   -0.2,   -0.1,   -0.2,   -0.4,   -0.2,   -0.3,   -0.3,   -0.3,   -0.4,   -0.2,  999.0,   -0.3,   -0.2,  999.0,  999.0,  999.0,  999.0,  999.0,  999.0,   -0.1,    0.1,    0.2,  999.0,  999.0,  999.0,  999.0,  999.0,  999.0,   -0.1,   -0.2,   -0.1,   -0.3,   -0.1,   -0.1,   -0.1,   -0.1,    0.1,    0.1
2007/08/04 23:00,   -0.0,   -0.0,    0.0,   -0.0,   -0.1,    0.0,    0.1,    0.2,    0.2,    0.4,    0.4,    0.4,    0.6,    0.5,    0.5,    0.6,    0.5,    0.4,    0.2,    0.2,    0.1,   -0.0,   -0.1,   -0.1,   -0.0,   -0.1,   -0.2,   -0.2,   -0.0,   -0.0,   -0.0,    0.0,    0.0,    0.1,    0.0,    0.1,    0.3,    0.3,    0.2,    0.4,    0.3,   -0.1,   -0.0,  999.0,   -0.2,  999.0,   -0.1,  999.0,   -0.2,   -0.2,   -0.2,   -0.3,  999.0,   -0.2,  999.0,  999.0,  999.0,    0.2,  999.0,  999.0,  999.0,    0.0,    0.1,  999.0,  999.0,  999.0,  999.0,  999.0,  999.0,   -0.2,   -0.2,   -0.2,   -0.3,   -0.2,   -0.4,   -0.4,   -0.4,  999.0,   -0.2,   -0.2
2007/08/04 23:10,    0.0,   -0.0,    0.1,   -0.0,    0.1,    0.1,    0.1,    0.2,    0.3,    0.4,    0.3,    0.3,    0.3,    0.3,    0.3,    0.2,    0.2,    0.1,    0.1,    0.0,   -0.1,   -0.0,   -0.0,    0.0,   -0.0,   -0.0,   -0.1,    0.0,    0.1,    0.0,    0.0,    0.1,    0.0,    0.1,    0.1,    0.1,    0.2,    0.3,    0.3,    0.2,    0.1,    0.0,  999.0,    0.0,   -0.3,   -0.3,   -0.0,   -0.0,  999.0,   -0.1,   -0.3,   -0.2,   -0.2,   -0.1,  999.0,   -0.0,  999.0,  999.0,  999.0,  999.0,    0.1,   -0.4,   -0.1,  999.0,  999.0,  999.0,  999.0,  999.0,  999.0,   -0.0,  999.0,  999.0,  999.0,    0.1,   -0.1,   -0.2,  999.0,   -0.0,   -0.1,   -0.1
2007/08/04 23:20,  999.0,   -0.0,   -0.0,   -0.0,   -0.1,   -0.0,   -0.1,    0.1,    0.1,    0.2,    0.3,    0.4,    0.3,    0.2,    0.1,    0.1,   -0.0,    0.1,    0.1,   -0.0,   -0.0,   -0.1,   -0.0,    0.0,   -0.0,    0.1,    0.0,   -0.0,    0.0,    0.1,   -0.0,    0.0,    0.0,   -0.0,    0.1,    0.1,    0.0,    0.0,   -0.1,   -0.1,   -0.2,   -0.1,   -0.2,  999.0,   -0.3,  999.0,  999.0,  999.0,   -0.1,   -0.2,   -0.2,   -0.2,   -0.2,   -0.1,  999.0,  999.0,  999.0,  999.0,  999.0,   -0.1,    0.0,  999.0,  999.0,  999.0,  999.0,  999.0,  999.0,  999.0,  999.0,  999.0,  999.0,  999.0,  999.0,  999.0,   -0.1,   -0.3,  999.0,   -0.1,   -0.1,   -0.0
2007/08/04 23:30,    0.0,   -0.0,   -0.0,    0.0,   -0.1,   -0.0,   -0.1,    0.0,    0.1,    0.1,    0.1,    0.1,    0.1,    0.1,    0.1,    0.1,    0.1,    0.0,    0.0,    0.0,    0.0,    0.0,   -0.1,    0.0,    0.0,    0.0,    0.1,    0.1,    0.1,    0.0,    0.1,    0.1,   -0.0,    0.1,   -0.0,    0.1,    0.2,  999.0,    0.0,    0.0,   -0.1,   -0.0,   -0.2,   -0.3,  999.0,  999.0,  999.0,   -0.1,   -0.1,    0.0,   -0.1,    0.1,   -0.0,   -0.0,    0.0,  999.0,  999.0,  999.0,  999.0,    0.1,    0.3,  999.0,  999.0,  999.0,  999.0,  999.0,  999.0,  999.0,  999.0,  999.0,  999.0,  999.0,  999.0,  999.0,  999.0,  999.0,  999.0,   -0.1,   -0.2,   -0.0
2007/08/04 23:40,   -0.0,   -0.0,   -0.0,   -0.0,   -0.1,   -0.1,   -0.1,   -0.0,    0.3,    0.4,    0.3,    0.3,    0.3,    0.3,    0.1,    0.2,    0.1,    0.1,    0.1,  999.0,  999.0,    0.0,   -0.0,   -0.1,    0.0,    0.0,   -0.1,    0.0,   -0.0,   -0.0,   -0.0,   -0.0,   -0.0,    0.0,    0.0,    0.1,  999.0,    0.0,    0.1,   -0.0,   -0.0,  999.0,   -0.1,   -0.1,   -0.1,   -0.1,   -0.1,   -0.1,   -0.1,  999.0,  999.0,  999.0,   -0.1,    0.0,    0.1,    0.2,   -0.1,  999.0,  999.0,    0.3,    0.3,    0.2,  999.0,  999.0,  999.0,  999.0,  999.0,  999.0,  999.0,    0.4,  999.0,  999.0,  999.0,  999.0,  999.0,  999.0,  999.0,  999.0,    0.1,    0.1
2007/08/04 23:50,    0.0,   -0.0,    0.0,    0.0,   -0.1,   -0.1,   -0.2,    0.0,    0.2,    0.3,    0.3,    0.3,    0.4,    0.4,    0.2,    0.1,    0.1,    0.0,   -0.1,   -0.1,   -0.1,   -0.1,   -0.1,   -0.0,  999.0,    0.0,    0.0,    0.0,   -0.0,    0.0,    0.0,    0.0,    0.0,   -0.0,    0.1,    0.2,  999.0,    0.1,    0.1,   -0.1,   -0.1,  999.0,   -0.1,   -0.2,   -0.1,   -0.1,  999.0,  999.0,  999.0,  999.0,  999.0,  999.0,  999.0,   -0.2,   -0.1,  999.0,    0.0,    0.0,   -0.1,    0.1,  999.0,  999.0,  999.0,  999.0,  999.0,  999.0,  999.0,  999.0,  999.0,  999.0,  999.0,  999.0,  999.0,  999.0,  999.0,  999.0,  999.0,  999.0,   -0.1,   -0.0
